Time,TemperatureF,DewpointF,PressureIn,WindDirection,WindDirectionDegrees,WindSpeedMPH,WindSpeedGustMPH,Humidity,HourlyPrecipIn,Conditions,Clouds,dailyrainin,SoftwareType,DateUTC
2013-01-06 00:00:00,28.4,21.8,30.17,West,270,6.0,11.0,76,0.00,,---,0.00,VWS V14.01,2013-01-06 06:00:00,
2013-01-06 00:30:00,28.2,21.6,30.17,West,270,6.0,10.0,76,0.00,,---,0.00,VWS V14.01,2013-01-06 06:30:00,
2013-01-06 01:00:00,29.0,22.1,30.17,West,270,8.0,12.0,75,0.00,,---,0.00,VWS V14.01,2013-01-06 07:00:00,
2013-01-06 01:18:00,29.3,21.4,30.18,WNW,299,3.0,8.0,72,0.00,,---,0.00,VWS V14.01,2013-01-06 07:18:00,
2013-01-06 01:19:00,29.3,21.4,30.18,WNW,299,4.0,8.0,72,0.00,,---,0.00,VWS V14.01,2013-01-06 07:19:00,
2013-01-06 01:23:00,29.4,21.8,30.18,NW,310,4.0,9.0,73,0.00,,---,0.00,VWS V14.01,2013-01-06 07:23:00,
2013-01-06 01:24:00,29.4,21.8,30.18,NW,311,6.0,9.0,73,0.00,,---,0.00,VWS V14.01,2013-01-06 07:24:00,
2013-01-06 01:28:00,29.5,21.6,30.18,NW,323,9.0,17.0,72,0.00,,---,0.00,VWS V14.01,2013-01-06 07:28:00,
2013-01-06 01:29:00,29.5,21.6,30.18,NW,326,7.0,17.0,72,0.00,,---,0.00,VWS V14.01,2013-01-06 07:29:00,
2013-01-06 01:33:00,29.4,21.5,30.18,NW,319,10.0,17.0,72,0.00,,---,0.00,VWS V14.01,2013-01-06 07:33:00,
2013-01-06 01:34:00,29.4,21.5,30.18,NW,309,7.0,17.0,72,0.00,,---,0.00,VWS V14.01,2013-01-06 07:34:00,
2013-01-06 01:39:00,29.1,21.2,30.18,NW,319,6.0,17.0,72,0.00,,---,0.00,VWS V14.01,2013-01-06 07:39:00,
2013-01-06 01:40:00,29.1,21.2,30.18,NW,318,7.0,17.0,72,0.00,,---,0.00,VWS V14.01,2013-01-06 07:40:00,
2013-01-06 01:44:00,28.8,21.2,30.19,NW,313,9.0,11.0,73,0.00,,---,0.00,VWS V14.01,2013-01-06 07:44:00,
2013-01-06 01:45:00,28.8,21.2,30.19,NW,304,9.0,12.0,73,0.00,,---,0.00,VWS V14.01,2013-01-06 07:45:00,
2013-01-06 01:49:00,28.8,21.2,30.19,NW,318,9.0,12.0,73,0.00,,---,0.00,VWS V14.01,2013-01-06 07:49:00,
2013-01-06 01:50:00,28.7,21.1,30.19,NW,323,10.0,13.0,73,0.00,,---,0.00,VWS V14.01,2013-01-06 07:50:00,
2013-01-06 01:54:00,28.5,21.0,30.19,NW,315,6.0,13.0,73,0.00,,---,0.00,VWS V14.01,2013-01-06 07:54:00,
2013-01-06 01:55:00,28.5,21.0,30.19,NW,323,6.0,13.0,73,0.00,,---,0.00,VWS V14.01,2013-01-06 07:55:00,
2013-01-06 01:56:00,28.4,21.2,30.19,NW,304,6.0,13.0,74,0.00,,---,0.00,VWS V14.01,2013-01-06 07:56:00,
2013-01-06 01:59:00,28.2,21.0,30.20,NW,316,10.0,13.0,74,0.00,,---,0.00,VWS V14.01,2013-01-06 07:59:00,
2013-01-06 02:00:00,28.2,21.0,30.20,WNW,300,6.0,13.0,74,0.00,,---,0.00,VWS V14.01,2013-01-06 08:00:00,
2013-01-06 02:01:00,28.1,20.9,30.20,WNW,291,8.0,13.0,74,0.00,,---,0.00,VWS V14.01,2013-01-06 08:01:00,
2013-01-06 02:04:00,27.8,20.6,30.20,NW,311,5.0,13.0,74,0.00,,---,0.00,VWS V14.01,2013-01-06 08:04:00,
2013-01-06 02:05:00,27.8,20.9,30.20,WNW,301,5.0,13.0,75,0.00,,---,0.00,VWS V14.01,2013-01-06 08:05:00,
2013-01-06 02:06:00,27.6,20.7,30.20,WNW,300,6.0,13.0,75,0.00,,---,0.00,VWS V14.01,2013-01-06 08:06:00,
2013-01-06 02:09:00,27.2,20.6,30.20,NW,312,4.0,13.0,76,0.00,,---,0.00,VWS V14.01,2013-01-06 08:09:00,
2013-01-06 02:10:00,27.2,20.6,30.20,NW,312,3.0,13.0,76,0.00,,---,0.00,VWS V14.01,2013-01-06 08:10:00,
2013-01-06 02:11:00,27.2,20.6,30.20,NW,304,7.0,13.0,76,0.00,,---,0.00,VWS V14.01,2013-01-06 08:11:00,
2013-01-06 02:15:00,27.3,20.8,30.22,NW,319,9.0,13.0,76,0.00,,---,0.00,VWS V14.01,2013-01-06 08:15:00,
2013-01-06 02:16:00,27.3,20.8,30.22,WNW,302,12.0,13.0,76,0.00,,---,0.00,VWS V14.01,2013-01-06 08:16:00,
2013-01-06 02:20:00,27.0,20.5,30.22,WNW,291,7.0,13.0,76,0.00,,---,0.00,VWS V14.01,2013-01-06 08:20:00,
2013-01-06 02:21:00,27.0,20.5,30.22,WNW,286,6.0,13.0,76,0.00,,---,0.00,VWS V14.01,2013-01-06 08:21:00,
2013-01-06 02:26:00,26.9,20.0,30.22,WNW,302,7.0,14.0,75,0.00,,---,0.00,VWS V14.01,2013-01-06 08:26:00,
2013-01-06 02:27:00,26.9,20.0,30.22,WNW,295,7.0,14.0,75,0.00,,---,0.00,VWS V14.01,2013-01-06 08:27:00,
2013-01-06 02:30:00,27.2,20.6,30.22,NW,304,5.0,13.0,76,0.00,,---,0.00,VWS V14.01,2013-01-06 08:30:00,
2013-01-06 02:31:00,26.9,20.0,30.22,WNW,288,7.0,15.0,75,0.00,,---,0.00,VWS V14.01,2013-01-06 08:31:00,
2013-01-06 02:32:00,26.7,19.9,30.22,WNW,288,9.0,15.0,75,0.00,,---,0.00,VWS V14.01,2013-01-06 08:32:00,
2013-01-06 02:36:00,26.6,19.8,30.22,NW,307,6.0,15.0,75,0.00,,---,0.00,VWS V14.01,2013-01-06 08:36:00,
2013-01-06 02:37:00,26.6,19.8,30.22,NW,306,9.0,15.0,75,0.00,,---,0.00,VWS V14.01,2013-01-06 08:37:00,
2013-01-06 02:41:00,26.6,19.8,30.22,WNW,297,7.0,15.0,75,0.00,,---,0.00,VWS V14.01,2013-01-06 08:41:00,
2013-01-06 02:42:00,26.6,19.8,30.22,WNW,289,5.0,15.0,75,0.00,,---,0.00,VWS V14.01,2013-01-06 08:42:00,
2013-01-06 02:46:00,26.4,19.6,30.22,WNW,283,10.0,12.0,75,0.00,,---,0.00,VWS V14.01,2013-01-06 08:46:00,
2013-01-06 02:47:00,26.3,19.5,30.22,NW,312,6.0,12.0,75,0.00,,---,0.00,VWS V14.01,2013-01-06 08:47:00,
2013-01-06 02:48:00,26.3,19.5,30.22,NW,307,9.0,12.0,75,0.00,,---,0.00,VWS V14.01,2013-01-06 08:48:00,
2013-01-06 02:52:00,26.4,19.6,30.22,West,281,11.0,16.0,75,0.00,,---,0.00,VWS V14.01,2013-01-06 08:52:00,
2013-01-06 02:53:00,26.3,19.5,30.22,WNW,288,15.0,16.0,75,0.00,,---,0.00,VWS V14.01,2013-01-06 08:53:00,
2013-01-06 02:57:00,26.3,19.5,30.22,WNW,284,17.0,17.0,75,0.00,,---,0.00,VWS V14.01,2013-01-06 08:57:00,
2013-01-06 02:58:00,26.3,19.5,30.22,WNW,293,12.0,17.0,75,0.00,,---,0.00,VWS V14.01,2013-01-06 08:58:00,
2013-01-06 03:00:00,26.4,19.6,30.22,West,278,8.0,15.0,75,0.00,,---,0.00,VWS V14.01,2013-01-06 09:00:00,
2013-01-06 03:03:00,26.1,19.3,30.22,WNW,293,11.0,15.0,75,0.00,,---,0.00,VWS V14.01,2013-01-06 09:03:00,
2013-01-06 03:04:00,26.1,19.3,30.22,WNW,295,10.0,15.0,75,0.00,,---,0.00,VWS V14.01,2013-01-06 09:04:00,
2013-01-06 03:08:00,26.0,19.2,30.22,NW,314,7.0,15.0,75,0.00,,---,0.00,VWS V14.01,2013-01-06 09:08:00,
2013-01-06 03:09:00,26.0,19.2,30.22,WNW,294,7.0,15.0,75,0.00,,---,0.00,VWS V14.01,2013-01-06 09:09:00,
2013-01-06 03:13:00,25.7,18.9,30.24,NW,313,5.0,10.0,75,0.00,,---,0.00,VWS V14.01,2013-01-06 09:13:00,
2013-01-06 03:14:00,25.7,19.2,30.24,WNW,302,6.0,10.0,76,0.00,,---,0.00,VWS V14.01,2013-01-06 09:14:00,
2013-01-06 03:30:00,25.7,18.9,30.24,WNW,303,7.0,15.0,75,0.00,,---,0.00,VWS V14.01,2013-01-06 09:30:00,
2013-01-06 04:00:00,25.0,18.5,30.24,WNW,292,7.0,15.0,76,0.00,,---,0.00,VWS V14.01,2013-01-06 10:00:00,
2013-01-06 04:30:00,24.1,18.0,30.25,WNW,292,9.0,15.0,77,0.00,,---,0.00,VWS V14.01,2013-01-06 10:30:00,
2013-01-06 05:00:00,23.3,17.2,30.26,WNW,292,7.0,15.0,77,0.00,,---,0.00,VWS V14.01,2013-01-06 11:00:00,
2013-01-06 05:30:00,22.5,16.7,30.27,WNW,292,6.0,12.0,78,0.00,,---,0.00,VWS V14.01,2013-01-06 11:30:00,
2013-01-06 06:00:00,21.6,16.4,30.29,WNW,292,5.0,10.0,80,0.00,,---,0.00,VWS V14.01,2013-01-06 12:00:00,
2013-01-06 06:25:00,21.6,16.4,30.29,WNW,292,5.0,10.0,80,0.00,,---,0.00,VWS V14.01,2013-01-06 12:25:00,
2013-01-06 06:30:00,20.5,15.3,30.31,WNW,301,0.0,5.0,80,0.00,,---,0.00,VWS V14.01,2013-01-06 12:30:00,
2013-01-06 06:31:00,20.5,15.3,30.31,WNW,301,1.0,5.0,80,0.00,,---,0.00,VWS V14.01,2013-01-06 12:31:00,
2013-01-06 06:35:00,20.5,15.3,30.31,WNW,301,1.0,5.0,80,0.00,,---,0.00,VWS V14.01,2013-01-06 12:35:00,
2013-01-06 06:36:00,20.5,15.3,30.31,WNW,301,1.0,5.0,80,0.00,,---,0.00,VWS V14.01,2013-01-06 12:36:00,
2013-01-06 06:37:00,20.5,15.3,30.31,WNW,301,2.0,5.0,80,0.00,,---,0.00,VWS V14.01,2013-01-06 12:37:00,
2013-01-06 06:40:00,20.5,15.3,30.31,WNW,301,2.0,5.0,80,0.00,,---,0.00,VWS V14.01,2013-01-06 12:40:00,
2013-01-06 06:41:00,20.5,15.3,30.31,WNW,301,2.0,5.0,80,0.00,,---,0.00,VWS V14.01,2013-01-06 12:41:00,
2013-01-06 06:42:00,20.5,15.3,30.31,WNW,301,2.0,5.0,80,0.00,,---,0.00,VWS V14.01,2013-01-06 12:42:00,
2013-01-06 06:46:00,20.2,15.0,30.31,WNW,301,4.0,4.0,80,0.00,,---,0.00,VWS V14.01,2013-01-06 12:46:00,
2013-01-06 06:47:00,20.2,15.0,30.31,WNW,301,3.0,4.0,80,0.00,,---,0.00,VWS V14.01,2013-01-06 12:47:00,
2013-01-06 06:51:00,20.0,14.8,30.31,WNW,301,3.0,4.0,80,0.00,,---,0.00,VWS V14.01,2013-01-06 12:51:00,
2013-01-06 06:52:00,19.9,14.7,30.31,WNW,301,4.0,4.0,80,0.00,,---,0.00,VWS V14.01,2013-01-06 12:52:00,
2013-01-06 06:53:00,19.7,14.5,30.31,WNW,301,3.0,4.0,80,0.00,,---,0.00,VWS V14.01,2013-01-06 12:53:00,
2013-01-06 06:56:00,19.7,14.8,30.31,WNW,301,4.0,5.0,81,0.00,,---,0.00,VWS V14.01,2013-01-06 12:56:00,
2013-01-06 06:57:00,19.7,14.8,30.32,WNW,301,4.0,5.0,81,0.00,,---,0.00,VWS V14.01,2013-01-06 12:57:00,
2013-01-06 06:58:00,19.7,14.8,30.32,WNW,290,4.0,5.0,81,0.00,,---,0.00,VWS V14.01,2013-01-06 12:58:00,
2013-01-06 07:00:00,20.3,15.1,30.31,WNW,301,3.0,5.0,80,0.00,,---,0.00,VWS V14.01,2013-01-06 13:00:00,
2013-01-06 07:01:00,19.5,14.6,30.32,WNW,290,3.0,5.0,81,0.00,,---,0.00,VWS V14.01,2013-01-06 13:01:00,
2013-01-06 07:02:00,19.5,14.6,30.32,WNW,289,3.0,5.0,81,0.00,,---,0.00,VWS V14.01,2013-01-06 13:02:00,
2013-01-06 07:03:00,19.4,14.5,30.32,West,259,4.0,5.0,81,0.00,,---,0.00,VWS V14.01,2013-01-06 13:03:00,
2013-01-06 07:06:00,19.4,14.8,30.32,West,259,3.0,5.0,82,0.00,,---,0.00,VWS V14.01,2013-01-06 13:06:00,
2013-01-06 07:07:00,19.2,14.6,30.32,West,259,4.0,5.0,82,0.00,,---,0.00,VWS V14.01,2013-01-06 13:07:00,
2013-01-06 07:09:00,19.2,14.6,30.32,West,259,4.0,5.0,82,0.00,,---,0.00,VWS V14.01,2013-01-06 13:09:00,
2013-01-06 07:12:00,19.1,14.5,30.32,West,259,4.0,5.0,82,0.00,,---,0.00,VWS V14.01,2013-01-06 13:12:00,
2013-01-06 07:13:00,19.1,14.5,30.33,West,259,3.0,3.0,82,0.00,,---,0.00,VWS V14.01,2013-01-06 13:13:00,
2013-01-06 07:14:00,18.9,14.3,30.33,West,259,3.0,5.0,82,0.00,,---,0.00,VWS V14.01,2013-01-06 13:14:00,
2013-01-06 07:17:00,18.9,14.3,30.33,West,259,4.0,5.0,82,0.00,,---,0.00,VWS V14.01,2013-01-06 13:17:00,
2013-01-06 07:18:00,19.1,14.5,30.33,West,259,4.0,5.0,82,0.00,,---,0.00,VWS V14.01,2013-01-06 13:18:00,
2013-01-06 07:19:00,19.1,14.5,30.33,West,261,6.0,7.0,82,0.00,,---,0.00,VWS V14.01,2013-01-06 13:19:00,
2013-01-06 07:22:00,19.2,14.9,30.33,West,271,5.0,7.0,83,0.00,,---,0.00,VWS V14.01,2013-01-06 13:22:00,
2013-01-06 07:23:00,19.2,14.6,30.33,West,279,7.0,8.0,82,0.00,,---,0.00,VWS V14.01,2013-01-06 13:23:00,
2013-01-06 07:25:00,19.5,14.9,30.33,WNW,287,5.0,8.0,82,0.00,,---,0.00,VWS V14.01,2013-01-06 13:25:00,
2013-01-06 07:27:00,19.5,14.9,30.34,West,273,5.0,8.0,82,0.00,,---,0.00,VWS V14.01,2013-01-06 13:27:00,
2013-01-06 07:28:00,19.5,14.9,30.34,West,276,4.0,8.0,82,0.00,,---,0.00,VWS V14.01,2013-01-06 13:28:00,
2013-01-06 07:30:00,19.1,14.5,30.33,West,259,3.0,5.0,82,0.00,,---,0.00,VWS V14.01,2013-01-06 13:30:00,
2013-01-06 07:31:00,19.5,14.9,30.34,West,265,5.0,8.0,82,0.00,,---,0.00,VWS V14.01,2013-01-06 13:31:00,
2013-01-06 07:33:00,19.5,14.9,30.34,West,266,4.0,8.0,82,0.00,,---,0.00,VWS V14.01,2013-01-06 13:33:00,
2013-01-06 07:34:00,19.5,14.9,30.34,West,266,4.0,8.0,82,0.00,,---,0.00,VWS V14.01,2013-01-06 13:34:00,
2013-01-06 07:36:00,19.5,14.9,30.34,West,266,4.0,8.0,82,0.00,,---,0.00,VWS V14.01,2013-01-06 13:36:00,
2013-01-06 07:38:00,19.5,14.6,30.34,West,266,4.0,8.0,81,0.00,,---,0.00,VWS V14.01,2013-01-06 13:38:00,
2013-01-06 07:39:00,19.5,14.6,30.34,West,266,3.0,8.0,81,0.00,,---,0.00,VWS V14.01,2013-01-06 13:39:00,
2013-01-06 07:41:00,19.4,14.5,30.34,West,266,3.0,8.0,81,0.00,,---,0.00,VWS V14.01,2013-01-06 13:41:00,
2013-01-06 07:43:00,19.4,14.5,30.34,West,266,2.0,3.0,81,0.00,,---,0.00,VWS V14.01,2013-01-06 13:43:00,
2013-01-06 07:44:00,19.2,14.3,30.34,West,266,3.0,3.0,81,0.00,,---,0.00,VWS V14.01,2013-01-06 13:44:00,
2013-01-06 07:45:00,19.2,14.3,30.34,West,262,4.0,5.0,81,0.00,,---,0.00,VWS V14.01,2013-01-06 13:45:00,
2013-01-06 07:46:00,19.2,14.6,30.34,West,262,5.0,5.0,82,0.00,,---,0.00,VWS V14.01,2013-01-06 13:46:00,
2013-01-06 07:48:00,19.2,14.6,30.34,WSW,258,5.0,6.0,82,0.00,,---,0.00,VWS V14.01,2013-01-06 13:48:00,
2013-01-06 07:49:00,19.2,14.6,30.34,WSW,258,3.0,6.0,82,0.00,,---,0.00,VWS V14.01,2013-01-06 13:49:00,
2013-01-06 07:50:00,19.2,14.6,30.34,WSW,258,4.0,6.0,82,0.00,,---,0.00,VWS V14.01,2013-01-06 13:50:00,
2013-01-06 07:51:00,19.2,14.6,30.34,WSW,258,3.0,6.0,82,0.00,,---,0.00,VWS V14.01,2013-01-06 13:51:00,
2013-01-06 07:54:00,19.2,14.6,30.34,West,259,4.0,6.0,82,0.00,,---,0.00,VWS V14.01,2013-01-06 13:54:00,
2013-01-06 07:55:00,19.4,15.1,30.34,West,259,4.0,6.0,83,0.00,,---,0.00,VWS V14.01,2013-01-06 13:55:00,
2013-01-06 07:56:00,19.4,15.1,30.34,West,259,5.0,6.0,83,0.00,,---,0.00,VWS V14.01,2013-01-06 13:56:00,
2013-01-06 07:59:00,19.4,14.8,30.34,West,259,3.0,6.0,82,0.00,,---,0.00,VWS V14.01,2013-01-06 13:59:00,
2013-01-06 08:00:00,19.4,14.8,30.34,West,259,3.0,6.0,82,0.00,,---,0.00,VWS V14.01,2013-01-06 14:00:00,
2013-01-06 08:01:00,19.4,14.8,30.34,West,259,4.0,6.0,82,0.00,,---,0.00,VWS V14.01,2013-01-06 14:01:00,
2013-01-06 08:04:00,19.4,14.8,30.34,WSW,258,3.0,6.0,82,0.00,,---,0.00,VWS V14.01,2013-01-06 14:04:00,
2013-01-06 08:05:00,19.4,14.8,30.34,WSW,258,3.0,6.0,82,0.00,,---,0.00,VWS V14.01,2013-01-06 14:05:00,
2013-01-06 08:06:00,19.4,14.8,30.34,West,259,3.0,6.0,82,0.00,,---,0.00,VWS V14.01,2013-01-06 14:06:00,
2013-01-06 08:07:00,19.4,14.8,30.34,WSW,258,3.0,6.0,82,0.00,,---,0.00,VWS V14.01,2013-01-06 14:07:00,
2013-01-06 08:09:00,19.4,14.8,30.34,WSW,258,3.0,6.0,82,0.00,,---,0.00,VWS V14.01,2013-01-06 14:09:00,
2013-01-06 08:10:00,19.5,14.9,30.34,WSW,258,2.0,6.0,82,0.00,,---,0.00,VWS V14.01,2013-01-06 14:10:00,
2013-01-06 08:11:00,19.5,15.2,30.34,WSW,258,3.0,6.0,83,0.00,,---,0.00,VWS V14.01,2013-01-06 14:11:00,
2013-01-06 08:12:00,19.5,14.9,30.34,WSW,258,2.0,6.0,82,0.00,,---,0.00,VWS V14.01,2013-01-06 14:12:00,
2013-01-06 08:15:00,19.5,15.2,30.34,WSW,258,3.0,5.0,83,0.00,,---,0.00,VWS V14.01,2013-01-06 14:15:00,
2013-01-06 08:16:00,19.5,15.2,30.34,WSW,258,3.0,5.0,83,0.00,,---,0.00,VWS V14.01,2013-01-06 14:16:00,
2013-01-06 08:17:00,19.7,15.4,30.34,WSW,258,3.0,5.0,83,0.00,,---,0.00,VWS V14.01,2013-01-06 14:17:00,
2013-01-06 08:20:00,19.7,15.4,30.34,West,259,4.0,5.0,83,0.00,,---,0.00,VWS V14.01,2013-01-06 14:20:00,
2013-01-06 08:21:00,19.9,15.6,30.34,WSW,258,3.0,5.0,83,0.00,,---,0.00,VWS V14.01,2013-01-06 14:21:00,
2013-01-06 08:22:00,19.9,15.6,30.34,West,259,4.0,5.0,83,0.00,,---,0.00,VWS V14.01,2013-01-06 14:22:00,
2013-01-06 08:25:00,20.2,15.9,30.34,West,259,3.0,5.0,83,0.00,,---,0.00,VWS V14.01,2013-01-06 14:25:00,
2013-01-06 08:26:00,20.2,15.9,30.34,West,259,4.0,5.0,83,0.00,,---,0.00,VWS V14.01,2013-01-06 14:26:00,
2013-01-06 08:27:00,20.2,15.9,30.34,West,259,4.0,5.0,83,0.00,,---,0.00,VWS V14.01,2013-01-06 14:27:00,
2013-01-06 08:30:00,20.5,15.9,30.34,WSW,258,4.0,5.0,82,0.00,,---,0.00,VWS V14.01,2013-01-06 14:30:00,
2013-01-06 08:31:00,20.5,15.9,30.34,WSW,258,4.0,5.0,82,0.00,,---,0.00,VWS V14.01,2013-01-06 14:31:00,
2013-01-06 08:32:00,20.6,16.0,30.34,West,259,6.0,6.0,82,0.00,,---,0.00,VWS V14.01,2013-01-06 14:32:00,
2013-01-06 08:35:00,20.8,16.2,30.34,WSW,258,4.0,6.0,82,0.00,,---,0.00,VWS V14.01,2013-01-06 14:35:00,
2013-01-06 08:36:00,20.8,16.2,30.34,WSW,258,5.0,6.0,82,0.00,,---,0.00,VWS V14.01,2013-01-06 14:36:00,
2013-01-06 08:37:00,20.8,16.2,30.34,WSW,258,4.0,6.0,82,0.00,,---,0.00,VWS V14.01,2013-01-06 14:37:00,
2013-01-06 08:38:00,21.0,16.4,30.34,WSW,258,4.0,6.0,82,0.00,,---,0.00,VWS V14.01,2013-01-06 14:38:00,
2013-01-06 08:41:00,21.1,16.5,30.34,WSW,258,5.0,6.0,82,0.00,,---,0.00,VWS V14.01,2013-01-06 14:41:00,
2013-01-06 08:42:00,21.3,16.7,30.35,WSW,258,3.0,6.0,82,0.00,,---,0.00,VWS V14.01,2013-01-06 14:42:00,
2013-01-06 08:43:00,21.3,16.7,30.35,WSW,255,4.0,5.0,82,0.00,,---,0.00,VWS V14.01,2013-01-06 14:43:00,
2013-01-06 08:46:00,21.4,16.5,30.35,West,259,5.0,6.0,81,0.00,,---,0.00,VWS V14.01,2013-01-06 14:46:00,
2013-01-06 08:47:00,21.6,16.7,30.35,West,259,4.0,6.0,81,0.00,,---,0.00,VWS V14.01,2013-01-06 14:47:00,
2013-01-06 08:49:00,21.6,16.7,30.35,West,259,3.0,6.0,81,0.00,,---,0.00,VWS V14.01,2013-01-06 14:49:00,
2013-01-06 08:51:00,21.8,16.9,30.35,West,259,3.0,6.0,81,0.00,,---,0.00,VWS V14.01,2013-01-06 14:51:00,
2013-01-06 08:53:00,21.8,16.6,30.35,West,259,5.0,6.0,80,0.00,,---,0.00,VWS V14.01,2013-01-06 14:53:00,
2013-01-06 08:54:00,21.9,17.0,30.35,West,259,4.0,6.0,81,0.00,,---,0.00,VWS V14.01,2013-01-06 14:54:00,
2013-01-06 08:56:00,22.1,17.2,30.35,WSW,256,4.0,6.0,81,0.00,,---,0.00,VWS V14.01,2013-01-06 14:56:00,
2013-01-06 08:58:00,21.9,16.7,30.36,WSW,255,4.0,6.0,80,0.00,,---,0.00,VWS V14.01,2013-01-06 14:58:00,
2013-01-06 08:59:00,22.1,16.9,30.36,WSW,245,5.0,6.0,80,0.00,,---,0.00,VWS V14.01,2013-01-06 14:59:00,
2013-01-06 09:00:00,21.3,16.7,30.35,WSW,258,5.0,6.0,82,0.00,,---,0.00,VWS V14.01,2013-01-06 15:00:00,
2013-01-06 09:01:00,22.2,17.3,30.36,WSW,245,5.0,6.0,81,0.00,,---,0.00,VWS V14.01,2013-01-06 15:01:00,
2013-01-06 09:02:00,22.2,17.0,30.36,WSW,245,4.0,6.0,80,0.00,,---,0.00,VWS V14.01,2013-01-06 15:02:00,
2013-01-06 09:03:00,22.2,17.0,30.36,WSW,245,4.0,6.0,80,0.00,,---,0.00,VWS V14.01,2013-01-06 15:03:00,
2013-01-06 09:05:00,22.4,17.5,30.36,WSW,245,4.0,6.0,81,0.00,,---,0.00,VWS V14.01,2013-01-06 15:05:00,
2013-01-06 09:07:00,22.7,17.8,30.36,WSW,258,5.0,6.0,81,0.00,,---,0.00,VWS V14.01,2013-01-06 15:07:00,
2013-01-06 09:08:00,22.7,17.8,30.36,WSW,256,6.0,7.0,81,0.00,,---,0.00,VWS V14.01,2013-01-06 15:08:00,
2013-01-06 09:10:00,23.0,18.0,30.36,WSW,240,4.0,7.0,81,0.00,,---,0.00,VWS V14.01,2013-01-06 15:10:00,
2013-01-06 09:12:00,23.0,17.8,30.37,WSW,257,5.0,7.0,80,0.00,,---,0.00,VWS V14.01,2013-01-06 15:12:00,
2013-01-06 09:13:00,23.2,18.0,30.37,WSW,258,5.0,7.0,80,0.00,,---,0.00,VWS V14.01,2013-01-06 15:13:00,
2013-01-06 09:53:00,26.3,19.1,30.37,WSW,248,7.0,7.0,74,0.00,,---,0.00,VWS V14.01,2013-01-06 15:53:00,
2013-01-06 09:54:00,26.3,19.1,30.37,WSW,248,7.0,8.0,74,0.00,,---,0.00,VWS V14.01,2013-01-06 15:54:00,
2013-01-06 09:58:00,26.6,19.4,30.37,West,259,6.0,9.0,74,0.00,,---,0.00,VWS V14.01,2013-01-06 15:58:00,
2013-01-06 09:59:00,26.6,19.1,30.37,WSW,258,6.0,9.0,73,0.00,,---,0.00,VWS V14.01,2013-01-06 15:59:00,
2013-01-06 10:03:00,26.6,19.1,30.37,West,273,6.0,10.0,73,0.00,,---,0.00,VWS V14.01,2013-01-06 16:03:00,
2013-01-06 10:04:00,26.7,19.2,30.37,WSW,257,6.0,10.0,73,0.00,,---,0.00,VWS V14.01,2013-01-06 16:04:00,
2013-01-06 10:08:00,27.0,19.5,30.37,West,259,6.0,10.0,73,0.00,,---,0.00,VWS V14.01,2013-01-06 16:08:00,
2013-01-06 10:09:00,27.2,19.4,30.37,West,267,6.0,10.0,72,0.00,,---,0.00,VWS V14.01,2013-01-06 16:09:00,
2013-01-06 10:13:00,27.5,19.7,30.38,WSW,250,6.0,6.0,72,0.00,,---,0.00,VWS V14.01,2013-01-06 16:13:00,
2013-01-06 10:14:00,27.5,19.7,30.38,WSW,242,5.0,7.0,72,0.00,,---,0.00,VWS V14.01,2013-01-06 16:14:00,
2013-01-06 10:18:00,27.8,19.6,30.38,West,264,10.0,10.0,71,0.00,,---,0.00,VWS V14.01,2013-01-06 16:18:00,
2013-01-06 10:19:00,27.8,19.3,30.38,WSW,254,5.0,11.0,70,0.00,,---,0.00,VWS V14.01,2013-01-06 16:19:00,
2013-01-06 10:20:00,27.8,19.6,30.38,WSW,247,10.0,11.0,71,0.00,,---,0.00,VWS V14.01,2013-01-06 16:20:00,
2013-01-06 10:24:00,28.1,19.6,30.38,WSW,257,5.0,11.0,70,0.00,,---,0.00,VWS V14.01,2013-01-06 16:24:00,
2013-01-06 10:25:00,28.2,20.0,30.38,SW,234,6.0,11.0,71,0.00,,---,0.00,VWS V14.01,2013-01-06 16:25:00,
2013-01-06 10:29:00,28.5,20.0,30.37,SW,232,6.0,11.0,70,0.00,,---,0.00,VWS V14.01,2013-01-06 16:29:00,
2013-01-06 10:30:00,28.7,20.5,30.37,WSW,250,9.0,11.0,71,0.00,,---,0.00,VWS V14.01,2013-01-06 16:30:00,
2013-01-06 10:34:00,28.7,20.2,30.37,WSW,238,4.0,11.0,70,0.00,,---,0.00,VWS V14.01,2013-01-06 16:34:00,
2013-01-06 10:35:00,28.8,20.3,30.37,WSW,240,7.0,11.0,70,0.00,,---,0.00,VWS V14.01,2013-01-06 16:35:00,
2013-01-06 10:36:00,29.0,20.8,30.37,WSW,240,6.0,11.0,71,0.00,,---,0.00,VWS V14.01,2013-01-06 16:36:00,
2013-01-06 10:39:00,29.1,20.2,30.37,West,267,9.0,11.0,69,0.00,,---,0.00,VWS V14.01,2013-01-06 16:39:00,
2013-01-06 10:40:00,29.1,20.2,30.37,West,265,10.0,11.0,69,0.00,,---,0.00,VWS V14.01,2013-01-06 16:40:00,
2013-01-06 10:41:00,29.1,20.2,30.37,West,269,8.0,11.0,69,0.00,,---,0.00,VWS V14.01,2013-01-06 16:41:00,
2013-01-06 10:44:00,29.7,21.1,30.37,SW,232,8.0,10.0,70,0.00,,---,0.00,VWS V14.01,2013-01-06 16:44:00,
2013-01-06 10:45:00,29.8,21.2,30.37,WSW,241,7.0,10.0,70,0.00,,---,0.00,VWS V14.01,2013-01-06 16:45:00,
2013-01-06 10:46:00,29.8,20.5,30.37,WSW,251,9.0,10.0,68,0.00,,---,0.00,VWS V14.01,2013-01-06 16:46:00,
2013-01-06 10:49:00,30.0,20.7,30.37,WSW,240,5.0,11.0,68,0.00,,---,0.00,VWS V14.01,2013-01-06 16:49:00,
2013-01-06 10:51:00,30.0,20.7,30.37,WSW,245,9.0,11.0,68,0.00,,---,0.00,VWS V14.01,2013-01-06 16:51:00,
2013-01-06 10:55:00,30.3,21.0,30.37,West,261,7.0,11.0,68,0.00,,---,0.00,VWS V14.01,2013-01-06 16:55:00,
2013-01-06 10:56:00,30.3,21.0,30.37,WSW,253,5.0,11.0,68,0.00,,---,0.00,VWS V14.01,2013-01-06 16:56:00,
2013-01-06 10:57:00,30.4,21.5,30.37,WSW,257,6.0,11.0,69,0.00,,---,0.00,VWS V14.01,2013-01-06 16:57:00,
2013-01-06 11:00:00,30.4,20.4,30.37,WSW,247,5.0,11.0,66,0.00,,---,0.00,VWS V14.01,2013-01-06 17:00:00,
2013-01-06 11:01:00,30.4,20.4,30.37,WSW,254,6.0,11.0,66,0.00,,---,0.00,VWS V14.01,2013-01-06 17:01:00,
2013-01-06 11:02:00,30.6,21.0,30.37,SW,234,3.0,11.0,67,0.00,,---,0.00,VWS V14.01,2013-01-06 17:02:00,
2013-01-06 11:05:00,30.9,21.2,30.37,WSW,239,6.0,11.0,67,0.00,,---,0.00,VWS V14.01,2013-01-06 17:05:00,
2013-01-06 11:06:00,30.9,20.5,30.37,SW,218,9.0,11.0,65,0.00,,---,0.00,VWS V14.01,2013-01-06 17:06:00,
2013-01-06 11:07:00,31.2,20.8,30.37,SW,233,7.0,11.0,65,0.00,,---,0.00,VWS V14.01,2013-01-06 17:07:00,
2013-01-06 11:11:00,31.0,20.3,30.37,WSW,241,6.0,11.0,64,0.00,,---,0.00,VWS V14.01,2013-01-06 17:11:00,
2013-01-06 11:13:00,31.2,20.5,30.36,WSW,257,6.0,11.0,64,0.00,,---,0.00,VWS V14.01,2013-01-06 17:13:00,
2013-01-06 11:16:00,31.3,20.5,30.36,WSW,245,8.0,12.0,64,0.00,,---,0.00,VWS V14.01,2013-01-06 17:16:00,
2013-01-06 11:17:00,31.5,20.7,30.36,WSW,252,7.0,12.0,64,0.00,,---,0.00,VWS V14.01,2013-01-06 17:17:00,
2013-01-06 11:18:00,31.5,20.7,30.36,West,265,8.0,12.0,64,0.00,,---,0.00,VWS V14.01,2013-01-06 17:18:00,
2013-01-06 11:21:00,31.8,20.7,30.36,SW,218,9.0,12.0,63,0.00,,---,0.00,VWS V14.01,2013-01-06 17:21:00,
2013-01-06 11:22:00,31.8,20.7,30.36,SW,216,7.0,12.0,63,0.00,,---,0.00,VWS V14.01,2013-01-06 17:22:00,
2013-01-06 11:23:00,31.8,20.3,30.36,WSW,240,8.0,12.0,62,0.00,,---,0.00,VWS V14.01,2013-01-06 17:23:00,
2013-01-06 11:26:00,32.1,20.6,30.36,WSW,253,6.0,12.0,62,0.00,,---,0.00,VWS V14.01,2013-01-06 17:26:00,
2013-01-06 11:27:00,32.2,21.0,30.36,WSW,237,8.0,12.0,63,0.00,,---,0.00,VWS V14.01,2013-01-06 17:27:00,
2013-01-06 11:28:00,32.2,20.7,30.36,SSW,209,5.0,12.0,62,0.00,,---,0.00,VWS V14.01,2013-01-06 17:28:00,
2013-01-06 11:29:00,32.2,21.0,30.36,West,263,10.0,12.0,63,0.00,,---,0.00,VWS V14.01,2013-01-06 17:29:00,
2013-01-06 11:30:00,31.2,20.5,30.36,WSW,256,7.0,11.0,64,0.00,,---,0.00,VWS V14.01,2013-01-06 17:30:00,
2013-01-06 11:31:00,32.1,20.6,30.36,SW,236,10.0,12.0,62,0.00,,---,0.00,VWS V14.01,2013-01-06 17:31:00,
2013-01-06 11:33:00,32.2,20.3,30.36,WSW,238,3.0,12.0,61,0.00,,---,0.00,VWS V14.01,2013-01-06 17:33:00,
2013-01-06 11:34:00,32.7,21.5,30.36,SW,220,6.0,12.0,63,0.00,,---,0.00,VWS V14.01,2013-01-06 17:34:00,
2013-01-06 11:37:00,32.8,20.5,30.36,West,267,9.0,12.0,60,0.00,,---,0.00,VWS V14.01,2013-01-06 17:37:00,
2013-01-06 11:38:00,32.8,20.1,30.36,West,265,6.0,12.0,59,0.00,,---,0.00,VWS V14.01,2013-01-06 17:38:00,
2013-01-06 11:40:00,32.9,20.2,30.36,WSW,245,5.0,12.0,59,0.00,,---,0.00,VWS V14.01,2013-01-06 17:40:00,
2013-01-06 11:42:00,33.2,20.0,30.35,SW,221,4.0,12.0,58,0.00,,---,0.00,VWS V14.01,2013-01-06 17:42:00,
2013-01-06 11:43:00,33.4,20.2,30.35,SSW,203,7.0,10.0,58,0.00,,---,0.00,VWS V14.01,2013-01-06 17:43:00,
2013-01-06 11:44:00,33.4,20.6,30.35,SSW,205,7.0,10.0,59,0.00,,---,0.00,VWS V14.01,2013-01-06 17:44:00,
2013-01-06 11:45:00,33.5,20.3,30.35,West,259,4.0,10.0,58,0.00,,---,0.00,VWS V14.01,2013-01-06 17:45:00,
2013-01-06 11:47:00,33.8,20.2,30.35,SW,226,5.0,10.0,57,0.00,,---,0.00,VWS V14.01,2013-01-06 17:47:00,
2013-01-06 11:48:00,34.0,20.4,30.35,WSW,254,7.0,10.0,57,0.00,,---,0.00,VWS V14.01,2013-01-06 17:48:00,
2013-01-06 11:49:00,34.0,20.4,30.35,WSW,240,5.0,10.0,57,0.00,,---,0.00,VWS V14.01,2013-01-06 17:49:00,
2013-01-06 11:50:00,34.0,20.0,30.35,WSW,241,6.0,10.0,56,0.00,,---,0.00,VWS V14.01,2013-01-06 17:50:00,
2013-01-06 11:53:00,34.0,20.0,30.35,SW,235,6.0,10.0,56,0.00,,---,0.00,VWS V14.01,2013-01-06 17:53:00,
2013-01-06 11:54:00,34.0,19.5,30.35,WSW,255,9.0,10.0,55,0.00,,---,0.00,VWS V14.01,2013-01-06 17:54:00,
2013-01-06 11:56:00,33.8,20.2,30.35,WSW,256,5.0,10.0,57,0.00,,---,0.00,VWS V14.01,2013-01-06 17:56:00,
2013-01-06 11:58:00,34.1,20.1,30.34,SW,227,7.0,10.0,56,0.00,,---,0.00,VWS V14.01,2013-01-06 17:58:00,
2013-01-06 11:59:00,34.1,20.5,30.34,SW,227,3.0,10.0,57,0.00,,---,0.00,VWS V14.01,2013-01-06 17:59:00,
2013-01-06 12:00:00,33.2,20.0,30.35,SSW,203,10.0,12.0,58,0.00,,---,0.00,VWS V14.01,2013-01-06 18:00:00,
2013-01-06 12:01:00,34.1,20.1,30.34,WSW,254,6.0,7.0,56,0.00,,---,0.00,VWS V14.01,2013-01-06 18:01:00,
2013-01-06 12:03:00,34.3,20.7,30.34,WSW,240,6.0,7.0,57,0.00,,---,0.00,VWS V14.01,2013-01-06 18:03:00,
2013-01-06 12:04:00,34.3,20.7,30.34,SW,226,5.0,7.0,57,0.00,,---,0.00,VWS V14.01,2013-01-06 18:04:00,
2013-01-06 12:06:00,34.6,20.1,30.34,WSW,243,7.0,9.0,55,0.00,,---,0.00,VWS V14.01,2013-01-06 18:06:00,
2013-01-06 12:09:00,34.6,20.1,30.34,West,266,6.0,10.0,55,0.00,,---,0.00,VWS V14.01,2013-01-06 18:09:00,
2013-01-06 12:10:00,34.6,19.7,30.34,WSW,242,6.0,10.0,54,0.00,,---,0.00,VWS V14.01,2013-01-06 18:10:00,
2013-01-06 12:11:00,34.6,19.7,30.34,WSW,258,6.0,10.0,54,0.00,,---,0.00,VWS V14.01,2013-01-06 18:11:00,
2013-01-06 12:14:00,34.9,20.4,30.33,South,190,4.0,6.0,55,0.00,,---,0.00,VWS V14.01,2013-01-06 18:14:00,
2013-01-06 12:15:00,35.0,20.5,30.33,SW,229,5.0,7.0,55,0.00,,---,0.00,VWS V14.01,2013-01-06 18:15:00,
2013-01-06 12:16:00,35.2,20.7,30.33,SW,229,3.0,7.0,55,0.00,,---,0.00,VWS V14.01,2013-01-06 18:16:00,
2013-01-06 12:19:00,35.6,19.7,30.33,SSW,196,6.0,8.0,52,0.00,,---,0.00,VWS V14.01,2013-01-06 18:19:00,
2013-01-06 12:20:00,35.6,19.3,30.33,SW,219,6.0,9.0,51,0.00,,---,0.00,VWS V14.01,2013-01-06 18:20:00,
2013-01-06 12:22:00,35.8,19.5,30.33,WSW,243,7.0,10.0,51,0.00,,---,0.00,VWS V14.01,2013-01-06 18:22:00,
2013-01-06 12:24:00,35.9,20.0,30.33,SW,229,7.0,10.0,52,0.00,,---,0.00,VWS V14.01,2013-01-06 18:24:00,
2013-01-06 12:25:00,35.9,20.0,30.33,SW,229,6.0,10.0,52,0.00,,---,0.00,VWS V14.01,2013-01-06 18:25:00,
2013-01-06 12:26:00,36.0,20.1,30.33,SW,231,6.0,10.0,52,0.00,,---,0.00,VWS V14.01,2013-01-06 18:26:00,
2013-01-06 12:27:00,36.0,19.6,30.32,SW,225,4.0,10.0,51,0.00,,---,0.00,VWS V14.01,2013-01-06 18:27:00,
2013-01-06 12:30:00,36.0,19.6,30.32,SW,236,5.0,10.0,51,0.00,,---,0.00,VWS V14.01,2013-01-06 18:30:00,
2013-01-06 12:31:00,36.2,19.8,30.32,SW,234,4.0,10.0,51,0.00,,---,0.00,VWS V14.01,2013-01-06 18:31:00,
2013-01-06 12:33:00,36.5,19.6,30.32,SSW,212,3.0,10.0,50,0.00,,---,0.00,VWS V14.01,2013-01-06 18:33:00,
2013-01-06 12:35:00,36.6,20.2,30.32,WSW,240,5.0,10.0,51,0.00,,---,0.00,VWS V14.01,2013-01-06 18:35:00,
2013-01-06 12:36:00,36.8,19.9,30.32,SW,229,5.0,10.0,50,0.00,,---,0.00,VWS V14.01,2013-01-06 18:36:00,
2013-01-06 12:38:00,36.9,19.5,30.32,WSW,249,5.0,10.0,49,0.00,,---,0.00,VWS V14.01,2013-01-06 18:38:00,
2013-01-06 12:40:00,36.8,19.5,30.32,SW,228,8.0,10.0,49,0.00,,---,0.00,VWS V14.01,2013-01-06 18:40:00,
2013-01-06 12:41:00,36.8,19.5,30.32,SW,222,6.0,10.0,49,0.00,,---,0.00,VWS V14.01,2013-01-06 18:41:00,
2013-01-06 12:44:00,36.8,19.9,30.31,SW,214,5.0,7.0,50,0.00,,---,0.00,VWS V14.01,2013-01-06 18:44:00,
2013-01-06 12:45:00,36.9,19.5,30.31,SW,221,5.0,7.0,49,0.00,,---,0.00,VWS V14.01,2013-01-06 18:45:00,
2013-01-06 12:46:00,36.9,19.5,30.31,SW,222,4.0,7.0,49,0.00,,---,0.00,VWS V14.01,2013-01-06 18:46:00,
2013-01-06 12:49:00,36.9,19.5,30.31,SW,236,2.0,7.0,49,0.00,,---,0.00,VWS V14.01,2013-01-06 18:49:00,
2013-01-06 12:50:00,37.0,20.1,30.31,SW,226,5.0,7.0,50,0.00,,---,0.00,VWS V14.01,2013-01-06 18:50:00,
2013-01-06 12:51:00,37.2,20.3,30.31,SW,226,3.0,7.0,50,0.00,,---,0.00,VWS V14.01,2013-01-06 18:51:00,
2013-01-06 12:54:00,37.5,19.6,30.31,SW,229,4.0,10.0,48,0.00,,---,0.00,VWS V14.01,2013-01-06 18:54:00,
2013-01-06 12:55:00,37.6,19.7,30.31,WSW,252,5.0,10.0,48,0.00,,---,0.00,VWS V14.01,2013-01-06 18:55:00,
2013-01-06 12:56:00,37.6,20.2,30.31,West,262,5.0,10.0,49,0.00,,---,0.00,VWS V14.01,2013-01-06 18:56:00,
2013-01-06 12:59:00,37.8,20.8,30.30,WSW,241,7.0,11.0,50,0.00,,---,0.00,VWS V14.01,2013-01-06 18:59:00,
2013-01-06 13:00:00,37.9,20.0,30.30,SW,230,5.0,11.0,48,0.00,,---,0.00,VWS V14.01,2013-01-06 19:00:00,
2013-01-06 13:01:00,38.0,20.1,30.30,WSW,255,9.0,11.0,48,0.00,,---,0.00,VWS V14.01,2013-01-06 19:01:00,
2013-01-06 13:05:00,37.9,20.0,30.30,SW,236,6.0,11.0,48,0.00,,---,0.00,VWS V14.01,2013-01-06 19:05:00,
2013-01-06 13:06:00,38.0,20.1,30.30,WSW,237,3.0,11.0,48,0.00,,---,0.00,VWS V14.01,2013-01-06 19:06:00,
2013-01-06 13:10:00,38.6,19.6,30.30,SSW,205,5.0,11.0,46,0.00,,---,0.00,VWS V14.01,2013-01-06 19:10:00,
2013-01-06 13:11:00,38.8,20.3,30.30,SW,227,5.0,11.0,47,0.00,,---,0.00,VWS V14.01,2013-01-06 19:11:00,
2013-01-06 13:12:00,38.8,20.3,30.29,SW,226,4.0,11.0,47,0.00,,---,0.00,VWS V14.01,2013-01-06 19:12:00,
2013-01-06 13:15:00,39.2,19.7,30.29,South,178,4.0,5.0,45,0.00,,---,0.00,VWS V14.01,2013-01-06 19:15:00,
2013-01-06 13:17:00,39.3,19.2,30.29,SSE,162,5.0,7.0,44,0.00,,---,0.00,VWS V14.01,2013-01-06 19:17:00,
2013-01-06 13:20:00,39.6,19.5,30.29,SW,220,3.0,9.0,44,0.00,,---,0.00,VWS V14.01,2013-01-06 19:20:00,
2013-01-06 13:22:00,39.8,19.1,30.29,SW,226,6.0,9.0,43,0.00,,---,0.00,VWS V14.01,2013-01-06 19:22:00,
2013-01-06 13:26:00,39.8,19.7,30.29,WSW,254,5.0,10.0,44,0.00,,---,0.00,VWS V14.01,2013-01-06 19:26:00,
2013-01-06 13:27:00,39.9,19.2,30.29,WSW,237,9.0,10.0,43,0.00,,---,0.00,VWS V14.01,2013-01-06 19:27:00,
2013-01-06 13:30:00,38.9,19.9,30.29,SW,226,5.0,11.0,46,0.00,,---,0.00,VWS V14.01,2013-01-06 19:30:00,
2013-01-06 13:31:00,39.5,18.9,30.29,West,277,5.0,10.0,43,0.00,,---,0.00,VWS V14.01,2013-01-06 19:31:00,
2013-01-06 13:32:00,39.3,17.6,30.29,West,277,6.0,10.0,41,0.00,,---,0.00,VWS V14.01,2013-01-06 19:32:00,
2013-01-06 13:33:00,39.3,18.7,30.29,West,277,4.0,10.0,43,0.00,,---,0.00,VWS V14.01,2013-01-06 19:33:00,
2013-01-06 13:37:00,39.5,18.9,30.29,South,172,4.0,10.0,43,0.00,,---,0.00,VWS V14.01,2013-01-06 19:37:00,
2013-01-06 13:38:00,39.8,19.1,30.29,South,178,2.0,10.0,43,0.00,,---,0.00,VWS V14.01,2013-01-06 19:38:00,
2013-01-06 13:42:00,40.2,17.2,30.28,SSW,201,6.0,11.0,39,0.00,,---,0.00,VWS V14.01,2013-01-06 19:42:00,
2013-01-06 13:47:00,40.5,18.1,30.28,SSW,210,6.0,10.0,40,0.00,,---,0.00,VWS V14.01,2013-01-06 19:47:00,
2013-01-06 13:48:00,40.5,18.1,30.28,SW,225,6.0,10.0,40,0.00,,---,0.00,VWS V14.01,2013-01-06 19:48:00,
2013-01-06 13:52:00,40.8,18.4,30.28,SSW,210,5.0,10.0,40,0.00,,---,0.00,VWS V14.01,2013-01-06 19:52:00,
2013-01-06 13:53:00,40.9,18.5,30.28,SSW,209,2.0,10.0,40,0.00,,---,0.00,VWS V14.01,2013-01-06 19:53:00,
2013-01-06 13:57:00,41.1,18.0,30.27,South,190,4.0,10.0,39,0.00,,---,0.00,VWS V14.01,2013-01-06 19:57:00,
2013-01-06 13:59:00,41.1,18.6,30.27,SSW,205,3.0,10.0,40,0.00,,---,0.00,VWS V14.01,2013-01-06 19:59:00,
2013-01-06 14:00:00,40.2,17.2,30.28,SW,215,5.0,11.0,39,0.00,,---,0.00,VWS V14.01,2013-01-06 20:00:00,
2013-01-06 14:03:00,41.2,18.1,30.27,SW,216,5.0,10.0,39,0.00,,---,0.00,VWS V14.01,2013-01-06 20:03:00,
2013-01-06 14:04:00,41.3,18.2,30.27,SW,221,4.0,10.0,39,0.00,,---,0.00,VWS V14.01,2013-01-06 20:04:00,
2013-01-06 14:08:00,41.5,19.0,30.27,South,184,3.0,10.0,40,0.00,,---,0.00,VWS V14.01,2013-01-06 20:08:00,
2013-01-06 14:10:00,41.6,17.9,30.27,SW,217,6.0,10.0,38,0.00,,---,0.00,VWS V14.01,2013-01-06 20:10:00,
2013-01-06 14:11:00,41.6,17.9,30.27,SW,217,6.0,10.0,38,0.00,,---,0.00,VWS V14.01,2013-01-06 20:11:00,
2013-01-06 14:13:00,41.6,17.3,30.27,SSW,209,7.0,8.0,37,0.00,,---,0.00,VWS V14.01,2013-01-06 20:13:00,
2013-01-06 14:16:00,41.5,17.8,30.27,South,174,5.0,8.0,38,0.00,,---,0.00,VWS V14.01,2013-01-06 20:16:00,
2013-01-06 14:18:00,41.5,17.8,30.27,SSW,209,4.0,11.0,38,0.00,,---,0.00,VWS V14.01,2013-01-06 20:18:00,
2013-01-06 14:21:00,41.6,18.5,30.27,SSW,195,6.0,11.0,39,0.00,,---,0.00,VWS V14.01,2013-01-06 20:21:00,
2013-01-06 14:23:00,41.9,18.2,30.27,SSW,209,5.0,11.0,38,0.00,,---,0.00,VWS V14.01,2013-01-06 20:23:00,
2013-01-06 14:26:00,42.1,18.3,30.27,SSW,192,6.0,11.0,38,0.00,,---,0.00,VWS V14.01,2013-01-06 20:26:00,
2013-01-06 14:29:00,41.9,18.2,30.27,South,181,3.0,11.0,38,0.00,,---,0.00,VWS V14.01,2013-01-06 20:29:00,
2013-01-06 14:30:00,41.6,17.3,30.27,SW,218,8.0,10.0,37,0.00,,---,0.00,VWS V14.01,2013-01-06 20:30:00,
2013-01-06 14:31:00,42.1,17.7,30.27,SW,224,6.0,11.0,37,0.00,,---,0.00,VWS V14.01,2013-01-06 20:31:00,
2013-01-06 14:32:00,42.1,17.7,30.27,SW,224,9.0,11.0,37,0.00,,---,0.00,VWS V14.01,2013-01-06 20:32:00,
2013-01-06 14:33:00,42.1,17.7,30.27,SSW,204,5.0,11.0,37,0.00,,---,0.00,VWS V14.01,2013-01-06 20:33:00,
2013-01-06 14:34:00,42.1,18.3,30.27,SW,221,4.0,11.0,38,0.00,,---,0.00,VWS V14.01,2013-01-06 20:34:00,
2013-01-06 14:37:00,42.3,18.5,30.27,South,172,7.0,11.0,38,0.00,,---,0.00,VWS V14.01,2013-01-06 20:37:00,
2013-01-06 14:38:00,42.2,18.4,30.27,SSE,161,4.0,11.0,38,0.00,,---,0.00,VWS V14.01,2013-01-06 20:38:00,
2013-01-06 14:39:00,42.2,18.4,30.27,SSE,161,3.0,11.0,38,0.00,,---,0.00,VWS V14.01,2013-01-06 20:39:00,
2013-01-06 14:42:00,42.2,18.4,30.27,South,170,4.0,11.0,38,0.00,,---,0.00,VWS V14.01,2013-01-06 20:42:00,
2013-01-06 14:43:00,42.2,18.4,30.26,South,172,3.0,11.0,38,0.00,,---,0.00,VWS V14.01,2013-01-06 20:43:00,
2013-01-06 14:44:00,42.2,19.0,30.26,South,188,5.0,7.0,39,0.00,,---,0.00,VWS V14.01,2013-01-06 20:44:00,
2013-01-06 14:48:00,42.3,17.9,30.26,SSW,204,3.0,9.0,37,0.00,,---,0.00,VWS V14.01,2013-01-06 20:48:00,
2013-01-06 14:49:00,42.3,18.5,30.26,SW,220,2.0,9.0,38,0.00,,---,0.00,VWS V14.01,2013-01-06 20:49:00,
2013-01-06 14:53:00,42.6,18.8,30.26,SSE,153,3.0,9.0,38,0.00,,---,0.00,VWS V14.01,2013-01-06 20:53:00,
2013-01-06 14:54:00,42.8,19.6,30.26,SW,222,9.0,9.0,39,0.00,,---,0.00,VWS V14.01,2013-01-06 20:54:00,
2013-01-06 14:58:00,42.8,18.4,30.27,SSW,201,5.0,9.0,37,0.00,,---,0.00,VWS V14.01,2013-01-06 20:58:00,
2013-01-06 14:59:00,42.8,19.0,30.27,SSW,196,4.0,9.0,38,0.00,,---,0.00,VWS V14.01,2013-01-06 20:59:00,
2013-01-06 15:00:00,42.8,18.4,30.27,SSW,196,2.0,2.0,37,0.00,,---,0.00,VWS V14.01,2013-01-06 21:00:00,
2013-01-06 15:01:00,42.9,19.1,30.27,SSW,196,4.0,4.0,38,0.00,,---,0.00,VWS V14.01,2013-01-06 21:01:00,
2013-01-06 15:03:00,43.2,18.7,30.27,SSW,204,7.0,8.0,37,0.00,,---,0.00,VWS V14.01,2013-01-06 21:03:00,
2013-01-06 15:05:00,43.1,17.3,30.27,SSW,200,4.0,8.0,35,0.00,,---,0.00,VWS V14.01,2013-01-06 21:05:00,
2013-01-06 15:06:00,43.2,18.1,30.27,SSW,200,5.0,8.0,36,0.00,,---,0.00,VWS V14.01,2013-01-06 21:06:00,
2013-01-06 15:08:00,43.2,18.1,30.27,South,179,5.0,8.0,36,0.00,,---,0.00,VWS V14.01,2013-01-06 21:08:00,
2013-01-06 15:10:00,43.2,17.4,30.27,South,191,3.0,8.0,35,0.00,,---,0.00,VWS V14.01,2013-01-06 21:10:00,
2013-01-06 15:12:00,43.3,17.5,30.26,SSW,210,5.0,8.0,35,0.00,,---,0.00,VWS V14.01,2013-01-06 21:12:00,
2013-01-06 15:13:00,43.6,18.4,30.26,South,185,6.0,6.0,36,0.00,,---,0.00,VWS V14.01,2013-01-06 21:13:00,
2013-01-06 15:15:00,43.6,17.8,30.26,SW,215,5.0,7.0,35,0.00,,---,0.00,VWS V14.01,2013-01-06 21:15:00,
2013-01-06 15:17:00,43.5,17.7,30.26,SSE,166,4.0,7.0,35,0.00,,---,0.00,VWS V14.01,2013-01-06 21:17:00,
2013-01-06 15:19:00,43.5,17.7,30.26,South,179,4.0,10.0,35,0.00,,---,0.00,VWS V14.01,2013-01-06 21:19:00,
2013-01-06 15:20:00,43.5,18.3,30.26,SSW,207,4.0,10.0,36,0.00,,---,0.00,VWS V14.01,2013-01-06 21:20:00,
2013-01-06 15:22:00,43.5,18.3,30.26,SSW,202,4.0,10.0,36,0.00,,---,0.00,VWS V14.01,2013-01-06 21:22:00,
2013-01-06 15:24:00,43.5,17.7,30.26,South,176,3.0,10.0,35,0.00,,---,0.00,VWS V14.01,2013-01-06 21:24:00,
2013-01-06 15:25:00,43.3,18.2,30.26,SSE,153,5.0,10.0,36,0.00,,---,0.00,VWS V14.01,2013-01-06 21:25:00,
2013-01-06 15:26:00,43.3,18.2,30.26,SSE,149,5.0,10.0,36,0.00,,---,0.00,VWS V14.01,2013-01-06 21:26:00,
2013-01-06 15:28:00,43.3,18.8,30.26,SW,227,9.0,10.0,37,0.00,,---,0.00,VWS V14.01,2013-01-06 21:28:00,
2013-01-06 15:29:00,43.3,17.5,30.26,SSW,209,5.0,10.0,35,0.00,,---,0.00,VWS V14.01,2013-01-06 21:29:00,
2013-01-06 15:30:00,43.3,17.5,30.26,South,186,5.0,10.0,35,0.00,,---,0.00,VWS V14.01,2013-01-06 21:30:00,
2013-01-06 15:31:00,43.3,17.5,30.26,South,184,4.0,10.0,35,0.00,,---,0.00,VWS V14.01,2013-01-06 21:31:00,
2013-01-06 15:33:00,43.3,17.5,30.26,SW,219,5.0,10.0,35,0.00,,---,0.00,VWS V14.01,2013-01-06 21:33:00,
2013-01-06 15:35:00,43.5,17.7,30.26,SW,223,3.0,10.0,35,0.00,,---,0.00,VWS V14.01,2013-01-06 21:35:00,
2013-01-06 15:36:00,43.5,17.7,30.26,SW,223,4.0,10.0,35,0.00,,---,0.00,VWS V14.01,2013-01-06 21:36:00,
2013-01-06 15:39:00,43.5,17.0,30.26,South,186,6.0,10.0,34,0.00,,---,0.00,VWS V14.01,2013-01-06 21:39:00,
2013-01-06 15:40:00,43.5,17.0,30.26,South,187,5.0,10.0,34,0.00,,---,0.00,VWS V14.01,2013-01-06 21:40:00,
2013-01-06 15:41:00,43.3,17.5,30.26,South,187,4.0,10.0,35,0.00,,---,0.00,VWS V14.01,2013-01-06 21:41:00,
2013-01-06 15:44:00,43.5,17.0,30.26,SSW,206,3.0,7.0,34,0.00,,---,0.00,VWS V14.01,2013-01-06 21:44:00,
2013-01-06 15:45:00,43.5,17.7,30.26,SSW,205,5.0,7.0,35,0.00,,---,0.00,VWS V14.01,2013-01-06 21:45:00,
2013-01-06 15:46:00,43.5,17.0,30.26,SSW,200,5.0,7.0,34,0.00,,---,0.00,VWS V14.01,2013-01-06 21:46:00,
2013-01-06 15:49:00,43.6,17.8,30.26,SSW,198,6.0,7.0,35,0.00,,---,0.00,VWS V14.01,2013-01-06 21:49:00,
2013-01-06 15:51:00,43.6,17.8,30.26,SSW,195,3.0,7.0,35,0.00,,---,0.00,VWS V14.01,2013-01-06 21:51:00,
2013-01-06 15:54:00,43.6,18.4,30.26,South,169,4.0,7.0,36,0.00,,---,0.00,VWS V14.01,2013-01-06 21:54:00,
2013-01-06 15:56:00,43.6,17.8,30.26,South,178,5.0,7.0,35,0.00,,---,0.00,VWS V14.01,2013-01-06 21:56:00,
2013-01-06 15:59:00,43.8,18.0,30.26,South,169,5.0,7.0,35,0.00,,---,0.00,VWS V14.01,2013-01-06 21:59:00,
2013-01-06 16:00:00,43.5,17.7,30.26,SW,219,5.0,10.0,35,0.00,,---,0.00,VWS V14.01,2013-01-06 22:00:00,
2013-01-06 16:01:00,43.6,17.8,30.26,South,169,3.0,7.0,35,0.00,,---,0.00,VWS V14.01,2013-01-06 22:01:00,
2013-01-06 16:02:00,43.6,17.8,30.26,South,169,3.0,7.0,35,0.00,,---,0.00,VWS V14.01,2013-01-06 22:02:00,
2013-01-06 16:04:00,43.6,18.4,30.26,South,169,4.0,7.0,36,0.00,,---,0.00,VWS V14.01,2013-01-06 22:04:00,
2013-01-06 16:07:00,43.6,18.4,30.26,SE,145,4.0,7.0,36,0.00,,---,0.00,VWS V14.01,2013-01-06 22:07:00,
2013-01-06 16:09:00,43.5,18.3,30.26,SSE,160,4.0,7.0,36,0.00,,---,0.00,VWS V14.01,2013-01-06 22:09:00,
2013-01-06 16:12:00,43.5,18.3,30.26,SSE,160,3.0,7.0,36,0.00,,---,0.00,VWS V14.01,2013-01-06 22:12:00,
2013-01-06 16:15:00,43.3,18.2,30.26,SSE,160,3.0,5.0,36,0.00,,---,0.00,VWS V14.01,2013-01-06 22:15:00,
2013-01-06 16:17:00,43.3,18.2,30.26,SSE,160,3.0,5.0,36,0.00,,---,0.00,VWS V14.01,2013-01-06 22:17:00,
2013-01-06 16:18:00,43.3,18.2,30.26,SSE,160,2.0,5.0,36,0.00,,---,0.00,VWS V14.01,2013-01-06 22:18:00,
2013-01-06 16:20:00,43.3,18.8,30.26,SSE,160,3.0,5.0,37,0.00,,---,0.00,VWS V14.01,2013-01-06 22:20:00,
2013-01-06 16:22:00,43.3,18.8,30.26,SSE,157,4.0,5.0,37,0.00,,---,0.00,VWS V14.01,2013-01-06 22:22:00,
2013-01-06 16:23:00,43.3,18.2,30.26,SSE,157,3.0,5.0,36,0.00,,---,0.00,VWS V14.01,2013-01-06 22:23:00,
2013-01-06 16:25:00,43.2,18.7,30.26,SSE,157,3.0,5.0,37,0.00,,---,0.00,VWS V14.01,2013-01-06 22:25:00,
2013-01-06 16:28:00,43.3,18.8,30.26,SSE,158,4.0,5.0,37,0.00,,---,0.00,VWS V14.01,2013-01-06 22:28:00,
2013-01-06 16:30:00,43.3,18.2,30.26,SSE,158,4.0,5.0,36,0.00,,---,0.00,VWS V14.01,2013-01-06 22:30:00,
2013-01-06 16:33:00,43.3,18.8,30.26,SSE,158,2.0,5.0,37,0.00,,---,0.00,VWS V14.01,2013-01-06 22:33:00,
2013-01-06 16:36:00,43.3,18.2,30.26,SSE,158,3.0,5.0,36,0.00,,---,0.00,VWS V14.01,2013-01-06 22:36:00,
2013-01-06 16:38:00,43.3,18.2,30.26,SSE,158,3.0,5.0,36,0.00,,---,0.00,VWS V14.01,2013-01-06 22:38:00,
2013-01-06 16:40:00,43.3,18.8,30.26,SSE,158,3.0,5.0,37,0.00,,---,0.00,VWS V14.01,2013-01-06 22:40:00,
2013-01-06 16:42:00,43.2,18.7,30.26,SSE,158,3.0,5.0,37,0.00,,---,0.00,VWS V14.01,2013-01-06 22:42:00,
2013-01-06 16:43:00,43.2,18.7,30.26,SSE,158,3.0,3.0,37,0.00,,---,0.00,VWS V14.01,2013-01-06 22:43:00,
2013-01-06 16:44:00,43.2,18.7,30.26,SSE,158,3.0,3.0,37,0.00,,---,0.00,VWS V14.01,2013-01-06 22:44:00,
2013-01-06 16:46:00,43.2,18.7,30.26,SSE,158,3.0,3.0,37,0.00,,---,0.00,VWS V14.01,2013-01-06 22:46:00,
2013-01-06 16:47:00,43.1,18.6,30.26,SSE,158,3.0,3.0,37,0.00,,---,0.00,VWS V14.01,2013-01-06 22:47:00,
2013-01-06 16:49:00,43.1,18.6,30.26,SSE,158,2.0,3.0,37,0.00,,---,0.00,VWS V14.01,2013-01-06 22:49:00,
2013-01-06 16:52:00,42.9,19.1,30.26,SSE,158,2.0,3.0,38,0.00,,---,0.00,VWS V14.01,2013-01-06 22:52:00,
2013-01-06 16:53:00,42.9,19.1,30.26,SSE,158,2.0,3.0,38,0.00,,---,0.00,VWS V14.01,2013-01-06 22:53:00,
2013-01-06 16:54:00,42.9,19.1,30.26,SSE,158,2.0,3.0,38,0.00,,---,0.00,VWS V14.01,2013-01-06 22:54:00,
2013-01-06 16:55:00,42.9,19.1,30.26,SSE,158,2.0,3.0,38,0.00,,---,0.00,VWS V14.01,2013-01-06 22:55:00,
2013-01-06 16:57:00,42.8,19.0,30.26,SSE,158,3.0,3.0,38,0.00,,---,0.00,VWS V14.01,2013-01-06 22:57:00,
2013-01-06 16:58:00,42.8,19.0,30.26,SSE,158,2.0,3.0,38,0.00,,---,0.00,VWS V14.01,2013-01-06 22:58:00,
2013-01-06 16:59:00,42.8,19.0,30.26,SSE,158,2.0,3.0,38,0.00,,---,0.00,VWS V14.01,2013-01-06 22:59:00,
2013-01-06 17:00:00,42.8,19.0,30.26,SSE,158,1.0,3.0,38,0.00,,---,0.00,VWS V14.01,2013-01-06 23:00:00,
2013-01-06 17:02:00,42.6,18.8,30.26,SSE,158,1.0,3.0,38,0.00,,---,0.00,VWS V14.01,2013-01-06 23:02:00,
2013-01-06 17:03:00,42.6,18.8,30.26,SSE,158,1.0,3.0,38,0.00,,---,0.00,VWS V14.01,2013-01-06 23:03:00,
2013-01-06 17:05:00,42.6,18.8,30.26,SSE,158,1.0,3.0,38,0.00,,---,0.00,VWS V14.01,2013-01-06 23:05:00,
2013-01-06 17:07:00,42.5,18.7,30.26,SSE,158,1.0,3.0,38,0.00,,---,0.00,VWS V14.01,2013-01-06 23:07:00,
2013-01-06 17:08:00,42.5,18.7,30.26,SSE,158,2.0,3.0,38,0.00,,---,0.00,VWS V14.01,2013-01-06 23:08:00,
2013-01-06 17:10:00,42.5,18.7,30.26,SSE,158,2.0,3.0,38,0.00,,---,0.00,VWS V14.01,2013-01-06 23:10:00,
2013-01-06 17:11:00,42.3,19.1,30.26,SSE,158,2.0,3.0,39,0.00,,---,0.00,VWS V14.01,2013-01-06 23:11:00,
2013-01-06 17:13:00,42.2,19.6,30.26,SSE,158,2.0,2.0,40,0.00,,---,0.00,VWS V14.01,2013-01-06 23:13:00,
2013-01-06 17:16:00,42.1,20.1,30.26,SSE,158,1.0,2.0,41,0.00,,---,0.00,VWS V14.01,2013-01-06 23:16:00,
2013-01-06 17:18:00,41.9,20.5,30.26,SSE,158,1.0,2.0,42,0.00,,---,0.00,VWS V14.01,2013-01-06 23:18:00,
2013-01-06 17:21:00,41.6,20.2,30.26,SSE,158,1.0,2.0,42,0.00,,---,0.00,VWS V14.01,2013-01-06 23:21:00,
2013-01-06 17:23:00,41.5,20.1,30.26,SSE,158,0.0,2.0,42,0.00,,---,0.00,VWS V14.01,2013-01-06 23:23:00,
2013-01-06 17:24:00,41.3,20.0,30.26,SSE,158,1.0,2.0,42,0.00,,---,0.00,VWS V14.01,2013-01-06 23:24:00,
2013-01-06 17:26:00,41.2,20.4,30.26,SSE,158,1.0,2.0,43,0.00,,---,0.00,VWS V14.01,2013-01-06 23:26:00,
2013-01-06 17:27:00,41.2,20.4,30.26,SSE,158,2.0,2.0,43,0.00,,---,0.00,VWS V14.01,2013-01-06 23:27:00,
2013-01-06 17:29:00,41.1,20.3,30.26,SSE,158,1.0,2.0,43,0.00,,---,0.00,VWS V14.01,2013-01-06 23:29:00,
2013-01-06 17:30:00,42.3,19.1,30.26,SSE,158,1.0,3.0,39,0.00,,---,0.00,VWS V14.01,2013-01-06 23:30:00,
2013-01-06 17:31:00,40.8,20.0,30.26,SSE,158,1.0,2.0,43,0.00,,---,0.00,VWS V14.01,2013-01-06 23:31:00,
2013-01-06 17:32:00,40.8,20.0,30.26,SSE,158,1.0,2.0,43,0.00,,---,0.00,VWS V14.01,2013-01-06 23:32:00,
2013-01-06 17:34:00,40.6,19.9,30.26,SSE,158,1.0,2.0,43,0.00,,---,0.00,VWS V14.01,2013-01-06 23:34:00,
2013-01-06 17:37:00,40.5,19.8,30.26,SSE,158,0.0,2.0,43,0.00,,---,0.00,VWS V14.01,2013-01-06 23:37:00,
2013-01-06 17:39:00,40.3,19.6,30.26,SSE,158,0.0,2.0,43,0.00,,---,0.00,VWS V14.01,2013-01-06 23:39:00,
2013-01-06 17:40:00,40.3,19.6,30.26,SSE,158,0.0,2.0,43,0.00,,---,0.00,VWS V14.01,2013-01-06 23:40:00,
2013-01-06 17:42:00,40.3,19.6,30.26,SSE,158,0.0,2.0,43,0.00,,---,0.00,VWS V14.01,2013-01-06 23:42:00,
2013-01-06 17:44:00,40.2,19.5,30.26,SSE,158,0.0,0.0,43,0.00,,---,0.00,VWS V14.01,2013-01-06 23:44:00,
2013-01-06 17:45:00,40.2,19.5,30.26,SSE,158,0.0,0.0,43,0.00,,---,0.00,VWS V14.01,2013-01-06 23:45:00,
2013-01-06 17:47:00,40.1,19.4,30.26,SSE,158,0.0,0.0,43,0.00,,---,0.00,VWS V14.01,2013-01-06 23:47:00,
2013-01-06 17:49:00,40.1,20.0,30.26,SSE,158,0.0,0.0,44,0.00,,---,0.00,VWS V14.01,2013-01-06 23:49:00,
2013-01-06 17:50:00,39.9,19.8,30.26,SSE,158,0.0,0.0,44,0.00,,---,0.00,VWS V14.01,2013-01-06 23:50:00,
2013-01-06 17:52:00,39.6,19.5,30.26,SSE,158,0.0,0.0,44,0.00,,---,0.00,VWS V14.01,2013-01-06 23:52:00,
2013-01-06 17:54:00,39.5,19.4,30.26,SSE,158,0.0,0.0,44,0.00,,---,0.00,VWS V14.01,2013-01-06 23:54:00,
2013-01-06 17:55:00,39.3,19.8,30.26,SSE,158,0.0,0.0,45,0.00,,---,0.00,VWS V14.01,2013-01-06 23:55:00,
2013-01-06 17:57:00,39.1,19.6,30.27,SSE,158,0.0,0.0,45,0.00,,---,0.00,VWS V14.01,2013-01-06 23:57:00,
2013-01-06 17:58:00,38.9,19.4,30.27,SSE,158,0.0,0.0,45,0.00,,---,0.00,VWS V14.01,2013-01-06 23:58:00,
2013-01-06 17:59:00,38.9,19.9,30.27,SSE,158,0.0,0.0,46,0.00,,---,0.00,VWS V14.01,2013-01-06 23:59:00,
2013-01-06 18:00:00,38.8,19.8,30.27,SSE,158,0.0,0.0,46,0.00,,---,0.00,VWS V14.01,2013-01-07 00:00:00,
2013-01-06 18:02:00,38.5,20.0,30.27,SSE,158,0.0,0.0,47,0.00,,---,0.00,VWS V14.01,2013-01-07 00:02:00,
2013-01-06 18:03:00,38.3,19.9,30.27,SSE,158,0.0,0.0,47,0.00,,---,0.00,VWS V14.01,2013-01-07 00:03:00,
2013-01-06 18:04:00,38.3,19.9,30.27,SSE,158,0.0,0.0,47,0.00,,---,0.00,VWS V14.01,2013-01-07 00:04:00,
2013-01-06 18:06:00,38.2,19.8,30.27,SSE,158,0.0,0.0,47,0.00,,---,0.00,VWS V14.01,2013-01-07 00:06:00,
2013-01-06 18:08:00,37.9,19.5,30.27,SSE,158,0.0,0.0,47,0.00,,---,0.00,VWS V14.01,2013-01-07 00:08:00,
2013-01-06 18:09:00,37.8,19.9,30.27,SSE,158,0.0,0.0,48,0.00,,---,0.00,VWS V14.01,2013-01-07 00:09:00,
2013-01-06 18:11:00,37.6,19.7,30.27,SSE,158,0.0,0.0,48,0.00,,---,0.00,VWS V14.01,2013-01-07 00:11:00,
2013-01-06 18:13:00,37.3,19.4,30.27,SSE,158,0.0,0.0,48,0.00,,---,0.00,VWS V14.01,2013-01-07 00:13:00,
2013-01-06 18:14:00,37.3,19.4,30.27,SSE,158,0.0,0.0,48,0.00,,---,0.00,VWS V14.01,2013-01-07 00:14:00,
2013-01-06 18:15:00,37.2,19.3,30.27,SSE,158,0.0,0.0,48,0.00,,---,0.00,VWS V14.01,2013-01-07 00:15:00,
2013-01-06 18:16:00,37.2,19.8,30.27,SSE,158,1.0,1.0,49,0.00,,---,0.00,VWS V14.01,2013-01-07 00:16:00,
2013-01-06 18:18:00,36.9,19.5,30.27,SSE,158,0.0,1.0,49,0.00,,---,0.00,VWS V14.01,2013-01-07 00:18:00,
2013-01-06 18:19:00,36.9,19.5,30.27,SSE,158,0.0,1.0,49,0.00,,---,0.00,VWS V14.01,2013-01-07 00:19:00,
2013-01-06 18:21:00,36.6,19.3,30.27,SSE,158,0.0,1.0,49,0.00,,---,0.00,VWS V14.01,2013-01-07 00:21:00,
2013-01-06 18:23:00,36.5,19.2,30.27,SSE,158,0.0,1.0,49,0.00,,---,0.00,VWS V14.01,2013-01-07 00:23:00,
2013-01-06 18:24:00,36.5,19.6,30.27,SSE,158,0.0,1.0,50,0.00,,---,0.00,VWS V14.01,2013-01-07 00:24:00,
2013-01-06 18:25:00,36.3,19.5,30.27,SSE,158,0.0,1.0,50,0.00,,---,0.00,VWS V14.01,2013-01-07 00:25:00,
2013-01-06 18:27:00,36.2,19.4,30.27,SSE,158,0.0,1.0,50,0.00,,---,0.00,VWS V14.01,2013-01-07 00:27:00,
2013-01-06 18:29:00,36.2,19.4,30.27,SSE,158,0.0,1.0,50,0.00,,---,0.00,VWS V14.01,2013-01-07 00:29:00,
2013-01-06 18:30:00,36.0,19.2,30.27,SSE,158,0.0,1.0,50,0.00,,---,0.00,VWS V14.01,2013-01-07 00:30:00,
2013-01-06 18:32:00,35.9,19.5,30.27,SSE,158,0.0,2.0,51,0.00,,---,0.00,VWS V14.01,2013-01-07 00:32:00,
2013-01-06 18:34:00,35.9,19.5,30.27,SSE,158,2.0,2.0,51,0.00,,---,0.00,VWS V14.01,2013-01-07 00:34:00,
2013-01-06 18:35:00,35.8,19.5,30.27,SSE,158,1.0,2.0,51,0.00,,---,0.00,VWS V14.01,2013-01-07 00:35:00,
2013-01-06 18:37:00,35.8,19.5,30.27,SSE,158,1.0,2.0,51,0.00,,---,0.00,VWS V14.01,2013-01-07 00:37:00,
2013-01-06 18:39:00,35.8,19.5,30.27,SSE,158,1.0,2.0,51,0.00,,---,0.00,VWS V14.01,2013-01-07 00:39:00,
2013-01-06 18:40:00,35.8,19.5,30.27,SSE,158,1.0,2.0,51,0.00,,---,0.00,VWS V14.01,2013-01-07 00:40:00,
2013-01-06 18:42:00,35.8,19.5,30.27,SSE,158,1.0,2.0,51,0.00,,---,0.00,VWS V14.01,2013-01-07 00:42:00,
2013-01-06 18:44:00,35.8,19.5,30.27,SSE,158,0.0,2.0,51,0.00,,---,0.00,VWS V14.01,2013-01-07 00:44:00,
2013-01-06 18:45:00,35.8,19.5,30.27,SSE,158,0.0,2.0,51,0.00,,---,0.00,VWS V14.01,2013-01-07 00:45:00,
2013-01-06 18:48:00,35.6,19.3,30.27,SSE,158,2.0,2.0,51,0.00,,---,0.00,VWS V14.01,2013-01-07 00:48:00,
2013-01-06 18:49:00,35.6,19.3,30.27,SSE,158,1.0,2.0,51,0.00,,---,0.00,VWS V14.01,2013-01-07 00:49:00,
2013-01-06 18:50:00,35.6,19.7,30.27,SSE,158,1.0,2.0,52,0.00,,---,0.00,VWS V14.01,2013-01-07 00:50:00,
2013-01-06 18:53:00,35.8,19.9,30.27,SSE,158,2.0,3.0,52,0.00,,---,0.00,VWS V14.01,2013-01-07 00:53:00,
2013-01-06 18:54:00,35.8,19.9,30.27,SSE,158,2.0,3.0,52,0.00,,---,0.00,VWS V14.01,2013-01-07 00:54:00,
2013-01-06 18:56:00,35.8,19.9,30.27,SSE,158,2.0,3.0,52,0.00,,---,0.00,VWS V14.01,2013-01-07 00:56:00,
2013-01-06 18:58:00,35.6,19.7,30.27,SSE,158,1.0,3.0,52,0.00,,---,0.00,VWS V14.01,2013-01-07 00:58:00,
2013-01-06 19:00:00,35.6,19.7,30.27,SSE,157,0.0,3.0,52,0.00,,---,0.00,VWS V14.01,2013-01-07 01:00:00,
2013-01-06 19:01:00,35.6,19.7,30.27,SSE,157,1.0,3.0,52,0.00,,---,0.00,VWS V14.01,2013-01-07 01:01:00,
2013-01-06 19:04:00,35.6,19.7,30.27,SSE,157,2.0,3.0,52,0.00,,---,0.00,VWS V14.01,2013-01-07 01:04:00,
2013-01-06 19:05:00,35.5,19.6,30.27,SSE,157,1.0,3.0,52,0.00,,---,0.00,VWS V14.01,2013-01-07 01:05:00,
2013-01-06 19:06:00,35.5,19.6,30.27,SSE,157,1.0,3.0,52,0.00,,---,0.00,VWS V14.01,2013-01-07 01:06:00,
2013-01-06 19:09:00,35.3,19.9,30.27,SSE,157,2.0,3.0,53,0.00,,---,0.00,VWS V14.01,2013-01-07 01:09:00,
2013-01-06 19:10:00,35.3,19.9,30.27,SSE,157,2.0,3.0,53,0.00,,---,0.00,VWS V14.01,2013-01-07 01:10:00,
2013-01-06 19:11:00,35.3,19.9,30.27,SSE,155,2.0,3.0,53,0.00,,---,0.00,VWS V14.01,2013-01-07 01:11:00,
2013-01-06 19:15:00,35.2,20.2,30.27,SSE,153,2.0,3.0,54,0.00,,---,0.00,VWS V14.01,2013-01-07 01:15:00,
2013-01-06 19:16:00,35.0,20.0,30.27,SSE,153,1.0,3.0,54,0.00,,---,0.00,VWS V14.01,2013-01-07 01:16:00,
2013-01-06 19:20:00,34.9,20.4,30.27,SSE,153,2.0,3.0,55,0.00,,---,0.00,VWS V14.01,2013-01-07 01:20:00,
2013-01-06 19:21:00,34.9,20.4,30.27,SSE,153,1.0,3.0,55,0.00,,---,0.00,VWS V14.01,2013-01-07 01:21:00,
2013-01-06 19:22:00,34.7,20.2,30.27,SSE,153,2.0,3.0,55,0.00,,---,0.00,VWS V14.01,2013-01-07 01:22:00,
2013-01-06 19:26:00,34.7,20.2,30.27,SSE,153,1.0,3.0,55,0.00,,---,0.00,VWS V14.01,2013-01-07 01:26:00,
2013-01-06 19:27:00,34.7,20.2,30.27,SSE,153,2.0,3.0,55,0.00,,---,0.00,VWS V14.01,2013-01-07 01:27:00,
2013-01-06 19:28:00,34.7,20.2,30.26,SSE,153,2.0,3.0,55,0.00,,---,0.00,VWS V14.01,2013-01-07 01:28:00,
2013-01-06 19:30:00,35.2,20.2,30.27,SSE,155,3.0,3.0,54,0.00,,---,0.00,VWS V14.01,2013-01-07 01:30:00,
2013-01-06 19:31:00,34.7,20.2,30.26,SSE,148,3.0,4.0,55,0.00,,---,0.00,VWS V14.01,2013-01-07 01:31:00,
2013-01-06 19:32:00,34.7,20.2,30.26,SE,143,3.0,4.0,55,0.00,,---,0.00,VWS V14.01,2013-01-07 01:32:00,
2013-01-06 19:36:00,34.9,20.0,30.26,SE,141,2.0,4.0,54,0.00,,---,0.00,VWS V14.01,2013-01-07 01:36:00,
2013-01-06 19:37:00,34.9,20.0,30.26,SE,141,3.0,4.0,54,0.00,,---,0.00,VWS V14.01,2013-01-07 01:37:00,
2013-01-06 19:38:00,34.9,20.0,30.26,SE,141,2.0,4.0,54,0.00,,---,0.00,VWS V14.01,2013-01-07 01:38:00,
2013-01-06 19:41:00,34.9,20.4,30.26,SE,140,2.0,4.0,55,0.00,,---,0.00,VWS V14.01,2013-01-07 01:41:00,
2013-01-06 19:42:00,34.9,20.4,30.26,SE,136,3.0,4.0,55,0.00,,---,0.00,VWS V14.01,2013-01-07 01:42:00,
2013-01-06 19:43:00,34.9,20.4,30.26,SE,136,2.0,4.0,55,0.00,,---,0.00,VWS V14.01,2013-01-07 01:43:00,
2013-01-06 19:47:00,34.7,20.2,30.26,SE,135,3.0,3.0,55,0.00,,---,0.00,VWS V14.01,2013-01-07 01:47:00,
2013-01-06 19:48:00,34.7,20.2,30.26,SE,135,2.0,3.0,55,0.00,,---,0.00,VWS V14.01,2013-01-07 01:48:00,
2013-01-06 19:52:00,34.6,20.1,30.26,SE,135,3.0,3.0,55,0.00,,---,0.00,VWS V14.01,2013-01-07 01:52:00,
2013-01-06 19:53:00,34.6,20.1,30.26,SE,134,3.0,4.0,55,0.00,,---,0.00,VWS V14.01,2013-01-07 01:53:00,
2013-01-06 19:57:00,34.4,20.3,30.26,SE,130,3.0,4.0,56,0.00,,---,0.00,VWS V14.01,2013-01-07 01:57:00,
2013-01-06 19:58:00,34.4,20.3,30.26,SE,130,3.0,4.0,56,0.00,,---,0.00,VWS V14.01,2013-01-07 01:58:00,
2013-01-06 19:59:00,34.3,20.2,30.26,SE,128,2.0,4.0,56,0.00,,---,0.00,VWS V14.01,2013-01-07 01:59:00,
2013-01-06 20:00:00,34.9,20.4,30.26,SE,136,3.0,4.0,55,0.00,,---,0.00,VWS V14.01,2013-01-07 02:00:00,
2013-01-06 20:02:00,34.3,20.2,30.26,SE,127,3.0,4.0,56,0.00,,---,0.00,VWS V14.01,2013-01-07 02:02:00,
2013-01-06 20:03:00,34.3,20.2,30.26,SE,128,5.0,5.0,56,0.00,,---,0.00,VWS V14.01,2013-01-07 02:03:00,
2013-01-06 20:04:00,34.3,20.2,30.26,SE,132,4.0,6.0,56,0.00,,---,0.00,VWS V14.01,2013-01-07 02:04:00,
2013-01-06 20:07:00,34.1,20.5,30.26,SE,131,3.0,6.0,57,0.00,,---,0.00,VWS V14.01,2013-01-07 02:07:00,
2013-01-06 20:09:00,34.1,20.5,30.26,SE,131,4.0,6.0,57,0.00,,---,0.00,VWS V14.01,2013-01-07 02:09:00,
2013-01-06 20:10:00,34.1,20.5,30.26,SE,130,4.0,6.0,57,0.00,,---,0.00,VWS V14.01,2013-01-07 02:10:00,
2013-01-06 20:12:00,34.0,20.4,30.26,SE,130,5.0,6.0,57,0.00,,---,0.00,VWS V14.01,2013-01-07 02:12:00,
2013-01-06 20:14:00,34.0,20.4,30.26,SE,130,3.0,5.0,57,0.00,,---,0.00,VWS V14.01,2013-01-07 02:14:00,
2013-01-06 20:15:00,34.0,20.8,30.26,SE,130,3.0,5.0,58,0.00,,---,0.00,VWS V14.01,2013-01-07 02:15:00,
2013-01-06 20:17:00,33.8,20.6,30.26,SE,130,4.0,5.0,58,0.00,,---,0.00,VWS V14.01,2013-01-07 02:17:00,
2013-01-06 20:19:00,33.8,20.6,30.26,SE,130,3.0,5.0,58,0.00,,---,0.00,VWS V14.01,2013-01-07 02:19:00,
2013-01-06 20:20:00,33.8,20.6,30.26,SE,129,4.0,5.0,58,0.00,,---,0.00,VWS V14.01,2013-01-07 02:20:00,
2013-01-06 20:22:00,33.7,20.5,30.26,SE,129,5.0,6.0,58,0.00,,---,0.00,VWS V14.01,2013-01-07 02:22:00,
2013-01-06 20:24:00,33.7,20.5,30.26,SE,135,4.0,6.0,58,0.00,,---,0.00,VWS V14.01,2013-01-07 02:24:00,
2013-01-06 20:25:00,33.5,20.3,30.26,SE,135,4.0,6.0,58,0.00,,---,0.00,VWS V14.01,2013-01-07 02:25:00,
2013-01-06 20:28:00,33.4,20.6,30.25,SE,131,4.0,6.0,59,0.00,,---,0.00,VWS V14.01,2013-01-07 02:28:00,
2013-01-06 20:29:00,33.2,20.4,30.25,SE,136,4.0,6.0,59,0.00,,---,0.00,VWS V14.01,2013-01-07 02:29:00,
2013-01-06 20:30:00,33.2,20.4,30.25,SSE,148,4.0,6.0,59,0.00,,---,0.00,VWS V14.01,2013-01-07 02:30:00,
2013-01-06 20:31:00,33.1,20.4,30.25,SE,143,6.0,6.0,59,0.00,,---,0.00,VWS V14.01,2013-01-07 02:31:00,
2013-01-06 20:33:00,33.1,20.7,30.25,SE,139,5.0,6.0,60,0.00,,---,0.00,VWS V14.01,2013-01-07 02:33:00,
2013-01-06 20:34:00,32.9,20.5,30.25,SE,136,5.0,6.0,60,0.00,,---,0.00,VWS V14.01,2013-01-07 02:34:00,
2013-01-06 20:36:00,32.9,20.5,30.25,SE,134,7.0,9.0,60,0.00,,---,0.00,VWS V14.01,2013-01-07 02:36:00,
2013-01-06 20:37:00,32.9,20.5,30.25,SE,134,4.0,9.0,60,0.00,,---,0.00,VWS V14.01,2013-01-07 02:37:00,
2013-01-06 20:38:00,32.8,20.5,30.25,SE,133,6.0,9.0,60,0.00,,---,0.00,VWS V14.01,2013-01-07 02:38:00,
2013-01-06 20:39:00,32.8,20.5,30.25,SE,130,5.0,9.0,60,0.00,,---,0.00,VWS V14.01,2013-01-07 02:39:00,
2013-01-06 20:42:00,32.8,20.5,30.25,SE,134,7.0,9.0,60,0.00,,---,0.00,VWS V14.01,2013-01-07 02:42:00,
2013-01-06 20:43:00,32.8,20.5,30.25,SE,131,5.0,6.0,60,0.00,,---,0.00,VWS V14.01,2013-01-07 02:43:00,
2013-01-06 20:45:00,32.8,20.5,30.25,SE,127,5.0,7.0,60,0.00,,---,0.00,VWS V14.01,2013-01-07 02:45:00,
2013-01-06 20:47:00,32.8,20.5,30.25,SE,130,6.0,7.0,60,0.00,,---,0.00,VWS V14.01,2013-01-07 02:47:00,
2013-01-06 20:50:00,32.8,20.5,30.25,SE,127,5.0,7.0,60,0.00,,---,0.00,VWS V14.01,2013-01-07 02:50:00,
2013-01-06 20:52:00,32.7,20.8,30.25,SE,127,5.0,7.0,61,0.00,,---,0.00,VWS V14.01,2013-01-07 02:52:00,
2013-01-06 20:53:00,32.7,20.8,30.25,SE,127,4.0,7.0,61,0.00,,---,0.00,VWS V14.01,2013-01-07 02:53:00,
2013-01-06 20:55:00,32.7,20.8,30.25,SE,126,5.0,7.0,61,0.00,,---,0.00,VWS V14.01,2013-01-07 02:55:00,
2013-01-06 20:56:00,32.7,20.8,30.25,ESE,119,5.0,7.0,61,0.00,,---,0.00,VWS V14.01,2013-01-07 02:56:00,
2013-01-06 20:58:00,32.7,20.8,30.24,SE,127,6.0,7.0,61,0.00,,---,0.00,VWS V14.01,2013-01-07 02:58:00,
2013-01-06 21:00:00,32.5,20.6,30.24,SE,131,5.0,5.0,61,0.00,,---,0.00,VWS V14.01,2013-01-07 03:00:00,
2013-01-06 21:01:00,32.5,20.6,30.24,SE,129,4.0,5.0,61,0.00,,---,0.00,VWS V14.01,2013-01-07 03:01:00,
2013-01-06 21:03:00,32.5,20.6,30.24,SE,130,5.0,6.0,61,0.00,,---,0.00,VWS V14.01,2013-01-07 03:03:00,
2013-01-06 21:05:00,32.4,20.5,30.24,SE,134,7.0,7.0,61,0.00,,---,0.00,VWS V14.01,2013-01-07 03:05:00,
2013-01-06 21:06:00,32.4,20.5,30.24,SE,133,5.0,7.0,61,0.00,,---,0.00,VWS V14.01,2013-01-07 03:06:00,
2013-01-06 21:08:00,32.4,20.5,30.24,SE,138,7.0,7.0,61,0.00,,---,0.00,VWS V14.01,2013-01-07 03:08:00,
2013-01-06 21:11:00,32.4,20.5,30.24,SE,141,7.0,9.0,61,0.00,,---,0.00,VWS V14.01,2013-01-07 03:11:00,
2013-01-06 21:14:00,32.2,20.7,30.24,SE,139,5.0,7.0,62,0.00,,---,0.00,VWS V14.01,2013-01-07 03:14:00,
2013-01-06 21:16:00,32.1,20.6,30.24,SE,136,7.0,8.0,62,0.00,,---,0.00,VWS V14.01,2013-01-07 03:16:00,
2013-01-06 21:19:00,31.9,20.4,30.24,SE,139,7.0,10.0,62,0.00,,---,0.00,VWS V14.01,2013-01-07 03:19:00,
2013-01-06 21:22:00,31.9,20.8,30.24,SE,134,4.0,10.0,63,0.00,,---,0.00,VWS V14.01,2013-01-07 03:22:00,
2013-01-06 21:24:00,31.8,20.7,30.24,SE,131,5.0,10.0,63,0.00,,---,0.00,VWS V14.01,2013-01-07 03:24:00,
2013-01-06 21:25:00,31.8,20.7,30.24,SE,129,5.0,10.0,63,0.00,,---,0.00,VWS V14.01,2013-01-07 03:25:00,
2013-01-06 21:27:00,31.8,20.7,30.24,SE,132,5.0,10.0,63,0.00,,---,0.00,VWS V14.01,2013-01-07 03:27:00,
2013-01-06 21:29:00,31.8,20.7,30.24,SE,132,6.0,10.0,63,0.00,,---,0.00,VWS V14.01,2013-01-07 03:29:00,
2013-01-06 21:30:00,31.9,20.8,30.24,SE,132,5.0,10.0,63,0.00,,---,0.00,VWS V14.01,2013-01-07 03:30:00,
2013-01-06 21:32:00,31.8,20.7,30.24,SE,132,9.0,10.0,63,0.00,,---,0.00,VWS V14.01,2013-01-07 03:32:00,
2013-01-06 21:35:00,31.9,20.8,30.24,SE,127,5.0,10.0,63,0.00,,---,0.00,VWS V14.01,2013-01-07 03:35:00,
2013-01-06 21:37:00,31.9,20.8,30.24,SE,129,5.0,10.0,63,0.00,,---,0.00,VWS V14.01,2013-01-07 03:37:00,
2013-01-06 21:40:00,31.9,20.8,30.24,SE,132,7.0,10.0,63,0.00,,---,0.00,VWS V14.01,2013-01-07 03:40:00,
2013-01-06 21:41:00,31.9,20.8,30.24,SE,136,9.0,10.0,63,0.00,,---,0.00,VWS V14.01,2013-01-07 03:41:00,
2013-01-06 21:43:00,31.9,20.8,30.24,SE,135,8.0,10.0,63,0.00,,---,0.00,VWS V14.01,2013-01-07 03:43:00,
2013-01-06 21:45:00,32.1,20.6,30.24,SE,133,7.0,11.0,62,0.00,,---,0.00,VWS V14.01,2013-01-07 03:45:00,
2013-01-06 21:46:00,32.1,20.6,30.24,SE,140,10.0,11.0,62,0.00,,---,0.00,VWS V14.01,2013-01-07 03:46:00,
2013-01-06 21:48:00,32.1,20.9,30.24,SE,131,10.0,11.0,63,0.00,,---,0.00,VWS V14.01,2013-01-07 03:48:00,
2013-01-06 21:50:00,32.1,20.9,30.24,SE,134,6.0,11.0,63,0.00,,---,0.00,VWS V14.01,2013-01-07 03:50:00,
2013-01-06 21:52:00,32.1,20.9,30.24,SE,142,6.0,11.0,63,0.00,,---,0.00,VWS V14.01,2013-01-07 03:52:00,
2013-01-06 21:53:00,31.9,20.8,30.24,SE,133,6.0,11.0,63,0.00,,---,0.00,VWS V14.01,2013-01-07 03:53:00,
2013-01-06 21:55:00,31.9,20.8,30.24,SE,137,6.0,11.0,63,0.00,,---,0.00,VWS V14.01,2013-01-07 03:55:00,
2013-01-06 21:58:00,31.9,20.8,30.23,SE,146,5.0,11.0,63,0.00,,---,0.00,VWS V14.01,2013-01-07 03:58:00,
2013-01-06 21:59:00,31.9,20.8,30.23,SE,136,4.0,11.0,63,0.00,,---,0.00,VWS V14.01,2013-01-07 03:59:00,
2013-01-06 22:00:00,31.9,20.8,30.23,SE,134,5.0,11.0,63,0.00,,---,0.00,VWS V14.01,2013-01-07 04:00:00,
2013-01-06 22:03:00,31.9,20.8,30.23,SE,133,5.0,11.0,63,0.00,,---,0.00,VWS V14.01,2013-01-07 04:03:00,
2013-01-06 22:04:00,31.9,21.1,30.23,SE,133,5.0,11.0,64,0.00,,---,0.00,VWS V14.01,2013-01-07 04:04:00,
2013-01-06 22:06:00,31.8,21.0,30.23,SE,131,6.0,11.0,64,0.00,,---,0.00,VWS V14.01,2013-01-07 04:06:00,
2013-01-06 22:08:00,31.8,21.0,30.23,SE,139,7.0,11.0,64,0.00,,---,0.00,VWS V14.01,2013-01-07 04:08:00,
2013-01-06 22:09:00,31.6,20.8,30.23,SE,139,5.0,11.0,64,0.00,,---,0.00,VWS V14.01,2013-01-07 04:09:00,
2013-01-06 22:11:00,31.6,20.8,30.23,SE,131,5.0,11.0,64,0.00,,---,0.00,VWS V14.01,2013-01-07 04:11:00,
2013-01-06 22:13:00,31.6,20.8,30.23,SE,126,6.0,9.0,64,0.00,,---,0.00,VWS V14.01,2013-01-07 04:13:00,
2013-01-06 22:14:00,31.6,20.8,30.23,SE,128,5.0,9.0,64,0.00,,---,0.00,VWS V14.01,2013-01-07 04:14:00,
2013-01-06 22:15:00,31.6,20.8,30.23,SE,144,6.0,9.0,64,0.00,,---,0.00,VWS V14.01,2013-01-07 04:15:00,
2013-01-06 22:16:00,31.6,20.8,30.23,SE,139,7.0,9.0,64,0.00,,---,0.00,VWS V14.01,2013-01-07 04:16:00,
2013-01-06 22:18:00,31.6,20.8,30.23,SE,128,6.0,9.0,64,0.00,,---,0.00,VWS V14.01,2013-01-07 04:18:00,
2013-01-06 22:20:00,31.6,20.8,30.23,SE,133,9.0,9.0,64,0.00,,---,0.00,VWS V14.01,2013-01-07 04:20:00,
2013-01-06 22:21:00,31.6,20.8,30.23,SE,136,6.0,9.0,64,0.00,,---,0.00,VWS V14.01,2013-01-07 04:21:00,
2013-01-06 22:23:00,31.6,21.2,30.23,SE,141,11.0,11.0,65,0.00,,---,0.00,VWS V14.01,2013-01-07 04:23:00,
2013-01-06 22:25:00,31.5,21.1,30.23,SE,130,5.0,11.0,65,0.00,,---,0.00,VWS V14.01,2013-01-07 04:25:00,
2013-01-06 22:27:00,31.5,21.1,30.23,SE,124,8.0,11.0,65,0.00,,---,0.00,VWS V14.01,2013-01-07 04:27:00,
2013-01-06 22:29:00,31.5,21.1,30.22,SE,134,5.0,11.0,65,0.00,,---,0.00,VWS V14.01,2013-01-07 04:29:00,
2013-01-06 22:30:00,31.5,21.5,30.22,SE,128,10.0,11.0,66,0.00,,---,0.00,VWS V14.01,2013-01-07 04:30:00,
2013-01-06 22:32:00,31.6,21.2,30.22,SE,134,10.0,13.0,65,0.00,,---,0.00,VWS V14.01,2013-01-07 04:32:00,
2013-01-06 22:34:00,31.8,21.4,30.22,SE,133,10.0,13.0,65,0.00,,---,0.00,VWS V14.01,2013-01-07 04:34:00,
2013-01-06 22:35:00,31.8,21.4,30.22,SE,131,9.0,13.0,65,0.00,,---,0.00,VWS V14.01,2013-01-07 04:35:00,
2013-01-06 22:36:00,31.8,21.4,30.22,SE,143,9.0,13.0,65,0.00,,---,0.00,VWS V14.01,2013-01-07 04:36:00,
2013-01-06 22:37:00,31.8,21.4,30.22,SE,130,10.0,13.0,65,0.00,,---,0.00,VWS V14.01,2013-01-07 04:37:00,
2013-01-06 22:40:00,31.8,21.4,30.22,SE,136,11.0,13.0,65,0.00,,---,0.00,VWS V14.01,2013-01-07 04:40:00,
2013-01-06 22:41:00,31.8,21.4,30.22,SE,130,11.0,13.0,65,0.00,,---,0.00,VWS V14.01,2013-01-07 04:41:00,
2013-01-06 22:43:00,31.8,21.4,30.22,SE,128,7.0,10.0,65,0.00,,---,0.00,VWS V14.01,2013-01-07 04:43:00,
2013-01-06 22:45:00,31.8,21.4,30.22,SE,133,9.0,12.0,65,0.00,,---,0.00,VWS V14.01,2013-01-07 04:45:00,
2013-01-06 22:46:00,31.8,21.4,30.22,SE,145,8.0,12.0,65,0.00,,---,0.00,VWS V14.01,2013-01-07 04:46:00,
2013-01-06 22:49:00,31.8,21.4,30.22,SE,133,11.0,13.0,65,0.00,,---,0.00,VWS V14.01,2013-01-07 04:49:00,
2013-01-06 22:50:00,31.8,21.4,30.22,SE,133,11.0,13.0,65,0.00,,---,0.00,VWS V14.01,2013-01-07 04:50:00,
2013-01-06 22:51:00,31.8,21.4,30.22,SE,132,9.0,13.0,65,0.00,,---,0.00,VWS V14.01,2013-01-07 04:51:00,
2013-01-06 22:54:00,31.8,21.4,30.22,SE,139,7.0,13.0,65,0.00,,---,0.00,VWS V14.01,2013-01-07 04:54:00,
2013-01-06 22:55:00,31.6,21.2,30.22,SE,133,11.0,13.0,65,0.00,,---,0.00,VWS V14.01,2013-01-07 04:55:00,
2013-01-06 22:56:00,31.6,21.2,30.22,SE,143,12.0,13.0,65,0.00,,---,0.00,VWS V14.01,2013-01-07 04:56:00,
2013-01-06 22:57:00,31.6,21.2,30.21,SE,129,7.0,13.0,65,0.00,,---,0.00,VWS V14.01,2013-01-07 04:57:00,
2013-01-06 22:59:00,31.6,21.2,30.21,SE,128,8.0,13.0,65,0.00,,---,0.00,VWS V14.01,2013-01-07 04:59:00,
2013-01-06 23:00:00,31.6,21.2,30.21,SE,144,7.0,13.0,65,0.00,,---,0.00,VWS V14.01,2013-01-07 05:00:00,
2013-01-06 23:01:00,31.6,21.2,30.21,SE,137,9.0,13.0,65,0.00,,---,0.00,VWS V14.01,2013-01-07 05:01:00,
2013-01-06 23:02:00,31.6,21.2,30.21,SSE,148,5.0,14.0,65,0.00,,---,0.00,VWS V14.01,2013-01-07 05:02:00,
2013-01-06 23:06:00,31.6,21.2,30.21,SSE,154,13.0,14.0,65,0.00,,---,0.00,VWS V14.01,2013-01-07 05:06:00,
2013-01-06 23:07:00,31.8,21.0,30.21,SSE,157,11.0,15.0,64,0.00,,---,0.00,VWS V14.01,2013-01-07 05:07:00,
2013-01-06 23:08:00,31.8,21.0,30.21,SE,140,12.0,15.0,64,0.00,,---,0.00,VWS V14.01,2013-01-07 05:08:00,
2013-01-06 23:11:00,31.8,21.0,30.21,SE,146,14.0,15.0,64,0.00,,---,0.00,VWS V14.01,2013-01-07 05:11:00,
2013-01-06 23:12:00,31.8,21.0,30.20,SSE,163,12.0,15.0,64,0.00,,---,0.00,VWS V14.01,2013-01-07 05:12:00,
2013-01-06 23:13:00,31.8,21.0,30.20,SE,136,14.0,14.0,64,0.00,,---,0.00,VWS V14.01,2013-01-07 05:13:00,
2013-01-06 23:17:00,31.8,21.0,30.20,SE,124,11.0,14.0,64,0.00,,---,0.00,VWS V14.01,2013-01-07 05:17:00,
2013-01-06 23:18:00,31.8,21.0,30.20,SE,127,12.0,14.0,64,0.00,,---,0.00,VWS V14.01,2013-01-07 05:18:00,
2013-01-06 23:22:00,31.8,21.0,30.20,SE,129,10.0,15.0,64,0.00,,---,0.00,VWS V14.01,2013-01-07 05:22:00,
2013-01-06 23:23:00,31.8,21.0,30.20,SE,131,10.0,15.0,64,0.00,,---,0.00,VWS V14.01,2013-01-07 05:23:00,
2013-01-06 23:30:00,31.8,21.0,30.20,SE,142,14.0,15.0,64,0.00,,---,0.00,VWS V14.01,2013-01-07 05:30:00,